GFSWCAN_925_thetae_000.txt.gz
Theta_e
300 300 299 299 300 300 300 300 300 300 301 302 302 304 305 304 303 305 307 305 306 310 310 310 311 314 315 314 317 319 321 327 328 331 330 331 333 334 334 335 337 338 338 335 335 337 338 333 332 334 340 334 333 333
299 299 299 299 299 299 300 300 299 301 300 302 301 304 305 303 303 304 307 306 305 308 310 309 308 308 311 312 314 315 319 326 322 327 329 332 331 332 333 334 332 335 337 338 336 338 337 333 335 333 334 336 337 338
300 300 299 300 300 300 300 300 300 301 301 300 301 303 304 303 304 303 306 306 307 310 310 309 312 310 310 310 308 315 317 319 320 317 322 326 336 334 331 330 333 331 331 332 334 335 333 330 331 332 333 335 335 335
300 300 299 299 299 299 299 300 300 301 301 299 301 302 304 304 304 303 306 306 307 308 310 310 307 308 307 309 309 311 312 314 316 318 323 325 327 324 332 332 333 331 330 331 332 333 330 330 331 330 331 331 332 332
299 299 300 300 300 300 301 301 300 300 301 299 301 301 303 304 304 304 306 306 306 308 311 310 308 308 309 309 311 311 312 314 316 319 322 327 323 325 327 326 329 329 330 331 330 327 329 329 325 327 329 331 331 334
299 299 299 300 299 300 301 301 301 300 301 300 301 301 303 304 303 305 308 306 306 306 311 311 309 310 310 311 311 311 312 312 315 315 317 318 318 319 323 325 326 327 325 325 327 323 323 323 324 325 326 328 329 330
300 299 300 300 300 300 300 301 301 301 301 300 301 301 303 304 304 306 309 308 306 306 311 311 310 311 310 311 311 312 311 311 313 314 314 314 316 316 316 318 319 318 322 324 320 318 319 320 321 320 321 324 327 327
300 300 300 300 300 300 300 300 301 300 301 300 301 301 304 303 303 305 305 304 304 307 309 312 310 312 309 313 316 313 312 312 312 312 313 313 314 315 314 316 317 316 315 315 316 316 317 318 318 318 320 321 324 327
301 301 300 300 300 300 300 301 301 300 300 300 301 303 305 305 306 306 303 303 305 307 311 310 312 313 308 311 310 313 315 316 313 313 313 314 315 317 316 316 317 316 317 318 318 318 319 319 319 320 319 320 322 324
301 301 300 300 301 301 301 301 301 300 300 300 303 306 307 305 303 304 307 309 308 308 308 310 308 309 308 310 310 310 310 315 320 319 316 316 316 316 316 317 317 317 319 319 321 322 321 322 321 322 321 319 322 323
301 301 300 300 301 301 300 301 301 300 301 303 304 306 305 303 306 307 308 308 308 309 308 308 309 311 310 312 313 312 313 315 317 320 319 318 318 319 321 321 322 322 322 322 321 321 323 323 323 323 322 320 321 322
301 301 301 301 301 301 300 301 301 301 303 304 305 305 305 307 307 307 307 308 308 309 308 310 312 311 312 311 314 315 315 315 315 316 319 318 322 324 323 322 321 319 319 318 318 318 320 323 325 325 323 322 324 327
300 300 301 301 301 300 301 301 301 302 302 302 305 307 307 305 307 306 308 308 309 308 309 311 312 312 312 312 314 316 316 315 315 316 316 315 325 322 321 319 318 317 317 318 318 318 320 322 322 322 324 327 327 326
300 300 300 300 300 300 301 301 300 302 303 304 304 307 306 305 306 307 307 308 309 309 311 312 313 313 314 315 315 315 315 314 315 315 316 317 323 321 320 319 319 319 319 320 323 323 324 322 323 325 326 325 324 324
300 300 299 300 301 301 301 300 300 302 300 304 304 307 307 306 306 307 307 309 310 310 312 311 313 313 313 313 314 314 315 316 316 316 317 319 318 317 318 317 319 319 320 323 325 325 325 326 326 325 324 323 323 322
300 300 302 301 301 301 300 300 301 302 302 303 304 306 306 307 307 307 309 309 309 311 312 312 313 313 313 314 314 315 314 314 317 316 313 312 314 315 314 315 319 318 320 322 323 324 324 324 324 324 322 323 323 322
302 301 300 300 300 300 301 302 302 303 303 303 306 306 306 307 307 307 309 309 310 312 313 314 313 312 312 314 314 314 316 317 315 314 313 314 315 317 317 317 318 319 321 322 322 323 323 323 323 323 325 323 322 321
302 301 300 300 301 301 302 303 303 303 304 305 307 307 307 308 308 308 308 309 311 311 313 313 314 315 316 316 317 319 315 314 313 317 317 316 312 317 316 318 317 316 319 322 322 322 322 321 322 322 321 321 320 319
302 301 300 301 302 303 304 304 304 306 306 306 306 306 307 308 307 308 309 309 310 311 311 312 314 315 316 317 315 314 314 316 317 319 318 317 314 316 314 314 314 315 319 320 319 318 319 319 318 318 319 319 319 318
301 301 301 302 303 305 305 305 304 306 307 307 307 308 308 308 308 308 308 308 310 310 312 313 314 314 314 317 317 316 316 318 319 320 318 318 312 315 316 315 316 316 316 316 316 316 316 316 315 315 315 316 316 316
303 302 302 303 304 305 306 307 306 306 307 307 309 310 309 310 310 310 310 311 312 312 313 312 313 314 314 315 316 317 318 319 321 320 318 314 313 313 314 313 314 314 314 315 315 314 314 314 314 314 314 315 315 314
303 302 302 302 303 304 305 305 308 306 305 306 306 309 311 313 313 313 313 313 313 314 314 315 315 314 314 317 319 319 319 320 320 317 314 314 316 315 314 313 314 315 314 314 314 314 313 313 312 312 312 313 312 313
302 302 302 303 302 301 303 303 305 305 307 308 310 311 313 313 313 311 310 311 311 313 312 312 312 313 317 318 320 320 320 318 317 316 316 315 315 315 315 315 314 314 314 313 313 313 312 311 312 311 312 311 311 311
303 304 303 302 303 304 304 305 304 309 307 312 313 312 314 315 312 313 318 319 318 317 319 319 320 322 321 319 320 319 318 317 317 317 316 315 315 315 314 313 312 311 311 311 311 312 312 311 310 311 311 311 311 311
305 307 307 310 309 314 318 318 318 318 319 317 316 316 317 318 318 318 318 318 322 321 320 318 316 316 316 315 315 317 318 316 315 315 314 313 313 313 313 312 311 310 309 309 310 310 310 311 311 310 310 310 310 310
311 313 316 318 319 320 320 318 319 319 318 318 318 318 318 317 317 317 318 319 320 317 317 317 317 316 316 315 315 315 314 314 314 314 313 313 313 313 313 313 313 312 310 309 309 309 309 309 309 309 309 309 308 308
320 320 320 316 316 320 320 320 320 320 319 319 318 316 315 316 316 316 315 313 314 313 313 313 314 314 314 314 313 313 313 312 312 311 311 311 311 311 311 312 312 311 311 310 310 309 308 308 308 307 307 307 307 308
317 319 321 318 317 316 316 316 316 317 316 315 316 315 316 315 315 313 312 311 311 311 311 310 310 311 311 311 311 310 310 310 311 311 311 310 310 311 311 310 310 309 309 309 309 309 309 309 308 308 308 307 306 306
318 317 315 315 315 315 315 314 314 314 314 314 314 314 314 314 313 313 312 312 313 313 313 313 313 313 312 313 313 313 312 312 312 313 313 314 314 312 311 311 310 310 310 310 309 308 308 308 308 308 308 308 307 307
315 314 315 315 316 316 315 314 314 313 314 314 314 314 314 313 312 312 312 313 313 314 313 313 313 313 313 313 312 312 311 311 310 309 311 310 309 308 308 308 309 309 310 310 310 310 309 308 307 305 304 304 304 305
315 315 315 315 316 316 315 315 315 314 315 315 314 314 315 314 313 314 314 314 314 314 313 313 312 311 311 311 311 311 310 308 307 306 305 303 302 302 303 303 303 303 304 305 306 307 308 308 308 308 307 307 307 306
316 316 316 316 316 316 315 315 316 316 316 315 314 313 314 314 316 316 314 314 314 313 312 311 311 311 310 309 308 308 305 304 303 301 301 301 302 302 302 303 303 304 304 305 305 305 305 305 306 306 307 307 308 307
317 317 316 316 316 316 316 316 317 317 317 316 315 315 315 314 316 315 314 313 312 311 310 310 310 309 308 307 305 304 302 301 300 299 301 300 300 299 300 301 301 301 302 303 304 305 306 307 307 307 307 308 308 308

GFSWCAN_925_thetae_003.txt.gz
Theta_e
300 300 300 300 300 300 300 300 301 301 300 301 303 303 305 305 304 306 310 308 308 312 312 312 313 316 319 316 321 321 322 325 328 330 331 330 329 329 331 333 337 340 337 334 334 335 338 335 335 336 343 337 336 335
301 301 300 300 300 300 300 299 300 300 300 301 302 303 304 305 304 304 310 309 308 311 312 310 309 309 310 315 317 318 324 330 328 331 331 332 333 332 335 336 335 338 341 342 342 342 342 337 339 336 335 336 335 335
300 300 300 300 300 300 300 300 300 300 301 301 301 303 304 305 303 304 307 309 309 313 314 311 315 313 312 311 310 317 319 323 326 323 328 331 336 336 335 334 336 336 335 334 337 338 336 333 333 334 334 334 334 334
299 299 299 300 300 300 300 299 300 300 300 301 300 302 302 305 303 304 308 308 309 311 313 314 309 310 309 309 311 311 316 316 319 323 327 329 329 330 332 332 335 333 334 333 333 335 334 334 331 331 332 333 334 334
299 299 299 299 300 300 300 300 300 300 300 301 300 301 301 304 304 305 307 308 308 311 316 314 310 311 310 312 311 312 313 316 317 320 324 327 327 327 328 329 330 330 330 332 335 332 332 333 328 329 331 332 333 334
300 299 299 299 299 300 300 300 301 300 301 301 300 301 301 304 303 307 310 308 309 309 313 315 313 313 312 313 312 314 316 316 317 318 318 320 321 323 325 326 326 327 328 328 330 324 324 324 325 325 325 327 330 332
301 300 299 300 299 299 300 300 301 300 301 301 300 301 301 304 305 308 310 308 306 307 314 314 313 314 312 314 314 314 313 314 315 316 316 317 318 318 318 319 321 323 323 324 325 322 322 323 323 323 323 324 324 328
301 300 300 300 300 300 300 300 300 301 301 301 300 301 302 303 304 305 306 305 304 308 311 315 314 314 313 316 318 315 316 314 314 315 315 316 316 316 316 316 317 318 318 317 317 317 318 319 320 321 321 321 323 325
301 301 301 301 300 300 300 300 300 301 300 301 300 301 305 305 307 308 304 303 305 310 314 312 313 315 312 314 315 316 316 317 316 315 315 315 316 317 318 318 318 319 318 319 319 320 320 320 321 322 323 322 321 321
301 302 301 301 300 300 300 300 301 301 301 300 302 306 309 307 305 303 308 311 311 311 311 313 312 313 311 313 314 314 314 317 320 319 317 317 318 317 317 319 319 320 320 321 322 323 324 324 323 323 322 323 323 322
302 302 301 301 300 301 301 301 301 301 300 303 306 308 307 303 307 308 309 310 311 311 311 311 311 313 311 315 316 314 315 316 316 319 320 318 318 321 321 321 323 323 323 322 322 321 321 320 320 321 323 323 323 323
301 301 301 301 301 301 301 301 301 302 304 305 307 307 306 308 309 309 310 310 310 312 311 311 312 312 315 313 315 317 316 316 315 318 319 318 329 326 325 324 322 321 320 319 318 319 319 319 317 319 322 325 324 323
301 301 301 301 301 301 301 301 301 302 303 305 306 308 309 308 309 308 309 310 311 310 312 313 314 314 314 314 315 316 317 316 316 317 316 317 327 325 323 322 320 320 319 319 319 317 317 318 317 317 322 323 323 325
300 300 301 302 301 301 301 301 301 302 304 306 306 311 308 308 308 308 309 310 311 312 313 313 313 315 314 315 316 316 316 316 317 316 317 323 321 319 318 319 320 319 318 318 319 319 319 319 320 320 322 324 326 327
300 300 300 301 301 301 301 301 301 303 304 306 306 310 308 308 308 308 309 310 311 312 312 312 313 314 314 315 315 315 316 317 317 320 322 319 319 318 319 319 319 321 319 321 321 320 321 321 324 326 326 325 325 326
300 300 302 301 301 301 301 301 303 304 304 306 306 308 307 308 308 308 309 309 310 311 311 313 314 314 313 314 314 316 316 318 321 318 318 317 317 316 319 318 320 320 321 322 321 323 324 323 324 325 325 325 325 325
302 302 301 301 301 300 301 303 304 305 305 305 307 307 308 309 309 308 309 309 310 313 315 314 314 314 313 313 315 316 320 320 317 316 316 316 315 317 319 319 319 318 320 323 323 323 323 323 323 323 325 324 323 323
302 301 301 300 301 301 303 304 305 305 305 307 308 307 307 309 309 308 309 309 310 313 314 316 316 315 316 315 318 320 318 314 314 315 318 320 318 316 316 316 316 318 318 318 320 322 322 322 324 325 324 323 322 322
302 301 300 302 303 304 305 305 305 306 307 307 307 307 308 308 309 310 309 309 311 313 314 314 316 315 316 318 317 317 317 315 317 318 319 317 318 318 316 317 316 317 319 319 318 318 318 319 319 319 320 320 320 319
300 300 301 302 303 306 306 307 305 308 308 308 307 308 307 308 308 309 309 310 310 310 312 313 314 315 316 315 314 315 316 317 319 319 315 316 315 318 317 319 318 318 319 316 316 315 315 316 316 316 316 316 318 319
303 302 301 303 306 306 308 308 307 307 309 308 310 310 310 309 309 309 309 309 310 311 312 312 312 313 314 314 315 316 319 320 322 321 318 319 315 315 315 315 315 315 315 314 314 314 313 314 315 314 315 315 316 316
304 302 303 304 305 305 307 308 309 308 308 308 308 311 312 313 312 312 313 314 313 312 312 313 314 315 316 318 319 319 321 320 320 318 316 315 315 318 317 315 315 315 315 314 314 315 314 314 313 313 313 315 314 314
303 302 302 303 304 302 304 304 306 306 308 308 309 310 310 312 312 311 312 310 311 312 311 312 314 315 317 317 320 320 319 319 320 318 317 317 316 315 316 315 315 314 314 314 313 313 313 312 313 312 312 313 312 312
302 304 304 303 302 304 303 306 305 308 309 309 308 305 305 307 308 307 310 313 316 318 320 321 320 323 323 321 322 321 318 318 317 318 316 316 315 315 315 315 314 313 312 310 311 311 312 312 312 312 312 313 313 312
307 307 307 309 307 309 310 312 309 309 312 312 317 319 320 313 317 318 317 318 322 320 321 320 320 321 317 317 321 319 317 315 315 315 315 314 314 314 314 314 313 313 312 312 311 311 311 311 311 311 312 311 312 312
314 316 318 320 321 321 320 320 318 319 319 319 319 321 322 318 318 319 319 320 319 318 317 318 318 315 316 315 315 316 315 314 313 314 313 312 312 313 314 314 314 313 313 313 312 312 311 311 310 310 310 310 310 309
321 320 321 320 320 322 321 320 320 319 319 319 318 316 316 316 316 315 314 314 314 313 313 313 314 314 314 314 313 313 312 312 313 313 313 313 312 312 312 313 313 312 311 311 311 311 312 312 311 311 311 310 310 309
320 321 317 316 316 316 317 317 316 316 316 316 316 316 315 315 316 316 316 315 315 315 314 314 314 314 314 314 314 314 314 314 314 313 312 312 312 313 313 313 312 311 311 311 311 311 311 311 311 311 311 311 311 311
316 317 317 317 316 315 315 315 315 315 315 316 316 316 316 316 316 315 314 315 314 314 315 315 314 314 313 313 313 313 312 312 312 313 312 312 311 309 307 307 307 307 308 308 309 310 311 311 311 310 309 309 309 309
317 317 317 317 317 317 316 316 316 316 316 316 315 316 315 315 315 314 314 315 315 314 314 314 314 313 313 313 312 312 311 311 308 308 309 308 306 303 303 303 303 303 304 304 305 305 305 306 308 309 310 310 310 310
316 317 317 317 316 317 316 316 315 315 315 315 315 315 316 316 315 315 315 315 315 314 313 313 313 312 312 312 311 310 310 307 305 304 303 302 302 302 302 302 301 303 303 303 304 304 305 306 306 306 306 306 307 308
318 318 317 316 317 317 316 317 317 317 316 315 315 316 316 316 317 316 315 314 314 313 312 311 311 310 309 308 307 306 305 305 303 303 301 300 301 300 300 300 300 301 301 301 301 301 303 304 305 306 306 306 307 308
318 318 318 318 318 318 318 318 318 318 318 316 316 316 316 316 317 316 315 314 313 311 311 310 308 307 305 305 304 304 304 303 302 299 298 297 298 299 299 299 300 300 300 300 300 300 300 301 302 302 302 302 303 304

GFSWCAN_925_thetae_006.txt.gz
Theta_e
300 300 301 302 301 302 301 302 301 301 301 301 301 302 304 304 306 306 308 312 311 312 312 313 313 314 317 322 323 324 325 325 328 330 329 329 330 330 334 338 337 342 340 338 340 339 339 337 339 339 348 343 338 337
301 301 301 301 301 302 302 301 301 301 301 302 302 301 303 304 305 304 309 310 310 312 313 311 311 312 312 314 318 319 322 332 331 333 331 330 330 331 339 331 335 337 342 348 347 348 342 339 342 340 338 342 337 337
300 300 300 301 301 301 302 302 301 301 301 302 303 302 302 303 305 305 307 309 310 313 315 315 314 315 312 312 312 315 324 324 329 326 330 334 336 337 339 341 340 341 339 341 341 343 339 338 335 334 334 334 332 332
299 300 300 299 300 301 301 302 302 302 302 302 302 302 301 302 304 304 307 309 310 313 315 315 310 311 311 310 312 313 317 318 319 321 328 331 333 332 334 339 341 341 339 339 340 338 339 335 332 332 332 333 332 332
301 300 300 300 300 300 301 301 301 302 302 301 301 303 301 301 303 305 307 309 309 311 317 317 314 312 312 313 313 313 315 317 318 319 322 326 327 329 329 329 331 331 336 338 337 333 334 331 329 329 330 330 331 333
301 301 300 300 300 299 300 301 301 300 301 300 301 302 300 301 303 307 312 310 310 310 313 316 315 316 314 314 313 315 316 318 317 319 320 321 324 326 327 326 325 329 330 330 328 326 325 326 326 327 325 326 326 327
301 301 301 300 300 300 300 301 299 300 301 300 301 301 300 301 305 307 310 309 306 306 314 315 314 315 313 315 315 315 314 316 316 317 317 320 320 319 320 320 321 321 323 322 322 322 322 321 322 322 323 324 324 324
301 301 302 301 300 300 300 300 300 301 301 301 302 300 300 302 304 306 306 306 305 308 312 316 315 315 314 316 317 316 316 315 315 317 317 317 319 318 317 318 318 319 320 319 318 318 319 321 321 321 321 322 323 323
301 300 301 300 300 300 300 300 300 301 301 301 301 300 304 305 308 308 306 304 305 309 315 314 315 317 315 317 319 317 317 317 316 316 315 316 316 316 318 319 318 319 319 319 320 321 321 321 322 323 323 323 323 323
300 301 302 301 301 301 300 300 300 301 301 301 302 305 309 308 306 305 308 311 311 311 311 313 315 315 313 315 314 317 317 318 320 320 316 315 316 317 317 318 320 321 321 322 323 324 324 324 322 321 322 322 323 323
302 302 302 301 301 301 301 300 301 301 301 302 306 309 309 305 307 309 311 312 312 312 312 311 313 314 313 316 318 315 316 316 316 319 319 319 324 327 325 326 325 324 323 322 321 320 320 320 320 320 320 319 320 323
302 302 302 301 301 301 301 301 301 302 303 305 306 308 306 309 309 310 311 311 311 313 312 312 312 314 316 315 317 316 315 316 317 320 320 320 333 327 326 325 324 322 322 321 320 320 320 320 319 319 319 318 318 321
301 301 301 301 301 302 301 301 301 303 304 305 306 309 311 310 309 310 312 311 311 311 312 314 314 312 315 314 315 317 316 316 316 317 318 329 326 323 322 322 322 322 322 322 320 318 318 319 318 318 321 320 319 322
300 301 301 301 301 301 301 302 301 302 304 307 308 311 311 310 308 310 310 311 312 314 314 314 314 317 316 315 317 316 317 317 318 318 324 322 321 320 320 320 321 321 321 321 320 320 320 320 321 318 319 321 322 324
300 301 302 301 301 301 301 301 302 304 306 307 308 310 309 309 309 311 311 312 312 314 314 313 314 315 316 316 316 317 317 318 318 325 322 320 320 319 321 321 321 322 322 322 322 322 321 321 322 321 321 326 328 328
300 301 302 301 301 301 301 301 303 305 306 307 307 309 310 310 310 308 310 311 312 313 313 314 315 316 315 316 316 317 316 321 323 320 319 319 320 319 318 321 322 322 322 321 323 324 322 323 324 324 326 326 326 326
302 303 301 301 300 301 302 304 305 306 306 307 307 308 310 311 310 310 310 311 312 312 314 315 316 314 314 314 315 316 323 320 318 319 318 320 321 317 317 318 319 319 318 320 322 322 323 322 321 324 328 324 325 324
303 302 301 301 301 302 304 305 307 306 307 307 309 311 312 311 310 311 311 311 313 315 316 317 316 315 316 317 321 320 319 318 319 319 319 319 321 319 316 318 318 318 318 320 321 320 321 324 323 325 325 324 323 324
303 302 301 302 303 306 306 306 306 308 308 308 309 309 309 309 310 310 310 311 312 314 315 316 316 316 318 320 318 317 318 318 319 319 318 318 319 320 320 318 318 320 320 319 320 319 318 317 318 320 320 320 321 321
300 302 302 302 303 307 308 307 307 309 310 310 309 309 309 310 310 310 310 311 311 312 313 314 315 317 316 317 316 317 317 319 321 320 319 318 317 319 320 320 316 318 317 317 316 314 316 316 316 316 316 316 318 319
302 302 301 302 306 308 309 309 309 309 310 310 311 313 312 310 310 309 310 311 311 311 312 312 315 314 314 314 316 316 320 322 323 322 322 321 318 317 317 317 317 317 316 315 316 315 313 316 315 316 316 315 317 316
304 303 305 304 306 306 307 309 310 309 310 311 311 311 313 313 312 315 315 314 313 313 313 312 313 315 318 319 320 319 319 320 320 321 320 317 319 318 318 317 316 317 316 315 315 316 315 315 315 314 313 314 315 314
303 303 303 304 305 303 306 306 309 309 309 309 311 312 313 314 314 313 313 313 313 312 312 313 314 314 316 318 319 317 319 321 323 322 320 319 318 316 316 316 316 316 316 314 312 312 313 313 314 314 314 313 313 314
302 302 302 303 304 304 304 306 306 307 308 309 310 309 309 310 309 308 307 310 314 318 321 320 320 321 320 320 323 322 320 318 318 318 317 317 317 316 316 316 315 315 315 314 313 312 312 312 312 312 313 313 313 313
306 305 300 301 299 303 308 308 308 306 306 307 306 308 309 308 312 314 316 319 319 319 320 320 320 322 321 318 318 319 318 317 315 316 315 315 314 313 313 314 314 313 314 315 315 314 313 313 312 312 312 312 312 312
309 315 313 314 307 313 317 319 316 317 320 320 321 321 318 319 318 318 320 321 320 320 320 320 318 317 317 316 316 316 315 314 314 314 315 315 315 315 315 315 315 314 314 313 313 313 312 313 313 313 313 312 312 311
322 320 325 320 321 321 322 321 321 321 319 318 318 317 316 316 317 318 317 317 316 314 314 314 314 315 315 314 314 315 315 315 315 316 315 314 313 313 313 314 314 310 310 312 312 313 313 313 313 313 313 312 312 312
322 318 317 317 317 318 317 316 316 317 317 317 318 318 317 317 317 317 318 316 315 315 315 315 315 315 315 315 315 314 314 313 314 313 312 312 311 311 310 308 306 305 306 306 306 306 307 308 309 310 311 311 312 312
318 318 317 318 318 317 317 317 316 316 317 317 316 316 316 316 316 318 316 316 315 315 315 315 315 314 314 314 313 312 312 312 312 311 310 310 310 307 306 305 306 305 304 305 306 306 305 305 305 306 306 307 308 309
318 317 317 318 318 317 317 316 316 316 316 316 316 317 317 317 316 316 315 316 316 315 314 314 314 313 313 312 311 310 310 309 308 308 308 307 306 304 304 304 304 303 302 303 304 304 303 303 304 305 307 308 308 308
318 318 318 317 317 317 317 317 316 316 316 316 316 317 317 317 316 315 315 315 314 314 313 313 312 311 310 309 308 308 308 306 307 307 305 303 302 302 301 301 301 301 302 302 302 302 302 302 302 303 304 306 305 305
320 320 320 321 321 319 319 318 318 317 318 317 317 318 318 318 318 316 315 315 314 313 313 312 310 308 307 307 306 306 305 305 305 304 302 301 300 299 300 300 300 301 301 301 301 301 300 300 300 300 302 303 302 302
321 320 321 320 319 321 319 320 320 320 320 319 317 318 317 318 318 317 315 314 313 312 312 311 308 307 306 305 305 305 304 303 303 302 300 299 298 299 299 301 301 301 300 300 300 300 299 299 299 299 300 300 299 299

GFSWCAN_925_thetae_009.txt.gz
Theta_e
300 301 301 301 302 302 302 302 303 303 303 302 302 303 304 304 304 306 306 309 311 314 312 312 313 312 311 313 320 320 323 329 330 334 330 330 330 330 334 337 336 343 342 339 340 341 343 339 340 346 341 339 339 339
300 301 301 301 301 301 301 302 302 302 302 302 302 303 304 304 304 305 307 307 309 313 313 312 311 311 312 313 312 314 319 327 331 333 334 335 331 332 337 339 339 348 344 349 350 348 340 338 336 334 333 335 335 334
302 301 300 301 301 301 301 301 302 302 303 302 302 304 304 304 303 305 306 307 309 312 313 313 313 313 313 312 312 314 320 321 322 322 328 333 340 337 341 341 341 341 338 342 344 341 339 338 334 332 333 335 334 333
301 301 301 300 301 300 300 301 301 302 302 302 303 303 304 303 302 303 306 307 308 311 314 314 312 311 312 311 311 312 313 317 318 319 321 331 335 331 337 340 340 338 339 339 340 338 339 334 332 334 334 331 331 333
301 301 301 301 300 301 301 300 301 302 302 302 303 303 304 303 301 302 305 307 308 311 314 314 313 313 311 312 314 313 315 317 318 320 322 324 329 330 329 331 336 336 338 342 337 337 336 334 330 327 327 327 326 326
301 301 302 301 301 300 299 299 301 302 301 301 301 301 303 301 301 305 312 309 307 305 312 316 315 314 313 313 313 315 316 318 318 319 322 322 321 324 329 328 327 333 334 329 332 333 330 328 328 324 324 325 324 324
301 301 302 302 301 300 300 300 301 301 300 301 301 300 302 300 302 306 309 309 305 306 311 317 316 315 315 316 315 314 315 316 317 318 319 318 320 321 321 324 320 322 323 320 320 323 322 323 322 322 321 322 323 323
301 301 301 302 302 301 300 300 300 300 300 302 301 301 301 300 302 304 305 306 306 306 311 316 318 317 314 314 318 317 317 316 317 318 319 319 321 319 319 323 320 321 321 321 321 321 322 322 322 323 323 323 323 322
301 301 301 301 301 300 300 300 300 300 301 301 301 301 303 305 308 310 309 306 305 308 314 317 316 320 314 318 320 317 320 320 318 316 316 318 319 320 320 319 320 322 323 323 322 323 324 324 324 322 321 321 321 321
301 301 300 301 301 301 301 301 300 300 301 301 301 305 308 309 308 306 307 311 310 312 311 313 314 316 313 316 316 319 319 321 319 318 317 316 328 326 325 324 324 324 323 321 321 322 320 320 320 320 320 319 318 317
301 301 301 302 301 301 301 300 300 301 301 302 306 308 308 308 306 311 313 315 314 315 313 312 312 316 315 319 321 319 320 320 319 319 319 324 333 326 324 323 323 322 321 320 320 319 319 319 319 319 318 318 317 318
302 302 302 302 301 301 301 300 301 302 303 304 305 306 308 309 312 312 313 314 314 313 313 312 313 316 318 318 320 319 319 319 320 321 322 332 327 322 322 321 321 320 321 321 321 321 320 320 319 318 318 319 319 319
301 302 302 301 301 301 301 301 301 303 304 305 306 309 312 311 310 311 312 312 313 315 313 315 314 314 318 316 319 320 318 318 318 319 327 325 322 321 320 320 320 321 321 321 321 320 320 320 320 321 319 320 320 320
301 301 301 301 302 301 301 301 302 303 304 307 308 305 311 312 309 311 312 315 315 315 315 317 316 319 318 316 320 318 319 319 320 321 325 322 320 319 319 321 321 321 321 321 321 321 322 322 322 321 320 321 322 324
301 301 301 302 302 301 302 302 302 303 305 308 309 309 310 310 310 313 314 314 314 315 315 315 316 317 317 316 318 318 318 318 324 324 322 320 320 320 319 321 322 322 322 321 322 324 324 322 324 324 323 324 324 321
302 302 302 301 301 301 301 302 303 305 307 308 309 311 312 312 311 311 313 314 314 315 315 316 318 318 318 318 317 318 317 324 322 321 320 321 321 318 318 320 321 320 319 321 323 323 322 323 323 322 323 321 323 322
303 303 301 301 301 301 302 304 306 308 307 308 309 310 311 314 314 312 314 313 315 315 317 317 316 315 317 316 315 323 322 320 319 320 320 321 322 321 319 317 319 320 319 319 320 322 323 322 322 322 323 323 323 323
303 301 301 301 302 302 305 305 308 307 307 308 311 312 312 314 313 312 313 314 315 317 320 319 319 318 316 316 323 320 320 320 319 320 321 322 322 321 320 320 320 318 317 318 320 322 322 321 324 323 322 321 321 322
302 302 302 303 304 305 307 306 307 308 309 309 310 311 311 312 314 314 313 315 314 314 317 318 318 319 321 321 320 319 318 319 319 321 319 319 319 320 320 320 320 321 320 321 321 321 320 318 318 319 320 321 320 320
301 302 302 302 303 306 308 310 307 309 312 313 311 311 312 311 312 312 312 313 314 314 315 316 316 318 319 318 318 318 318 319 321 321 320 320 319 319 320 320 320 318 319 316 317 316 316 317 317 319 318 318 318 319
302 304 302 305 307 308 309 310 311 312 313 313 314 315 314 312 312 312 311 314 314 311 314 316 317 317 318 317 316 318 320 320 321 322 322 321 320 319 318 318 318 318 318 316 316 316 316 317 316 315 315 316 317 318
303 303 305 305 306 307 307 308 309 310 311 310 312 314 315 316 316 315 315 315 317 315 317 316 316 317 318 318 319 318 318 318 319 321 321 321 320 319 318 318 318 318 318 317 315 314 313 313 314 313 314 314 315 315
303 303 304 305 305 303 304 306 310 309 310 311 312 313 313 314 311 311 313 313 313 314 314 314 314 314 316 317 319 319 317 318 320 321 321 320 320 319 319 318 318 318 318 316 313 312 313 312 313 312 313 313 314 314
301 301 302 303 304 305 304 307 307 308 309 309 310 310 310 311 309 309 309 310 312 317 320 319 319 320 319 319 321 319 319 319 321 320 320 320 318 317 316 316 315 314 314 315 315 315 314 313 313 312 312 312 312 313
301 301 299 302 301 304 308 309 309 308 309 308 307 307 308 308 311 314 318 317 318 319 318 318 319 321 320 320 320 320 319 320 320 318 317 314 314 315 315 315 315 312 311 314 315 314 314 313 313 313 314 314 314 313
305 305 302 308 307 307 308 312 310 309 309 309 310 314 312 314 318 319 320 318 318 319 319 319 320 321 321 320 319 319 316 314 314 316 316 315 314 314 315 315 312 307 307 308 309 308 308 309 309 310 311 312 313 313
317 322 314 312 316 316 320 323 322 323 322 322 321 321 321 319 319 320 317 317 320 317 317 318 317 316 318 317 315 316 314 315 315 314 312 311 311 310 307 307 308 306 306 306 305 306 307 307 307 307 307 307 308 309
325 322 321 321 320 319 320 319 319 318 316 317 317 317 317 318 319 319 320 315 316 316 316 315 315 315 315 314 313 312 312 312 311 310 309 309 308 307 305 305 306 305 304 303 303 304 305 304 304 304 305 305 306 307
320 320 320 320 318 318 318 319 318 316 317 317 318 319 318 318 319 318 317 317 315 315 315 315 313 312 311 311 309 309 309 308 308 310 310 309 308 306 304 303 302 302 302 302 303 303 303 303 302 303 303 306 306 307
319 317 318 319 319 319 318 317 317 317 317 318 318 319 319 319 317 316 316 315 315 315 313 313 311 310 309 309 308 308 307 307 307 307 307 306 305 303 302 301 301 301 301 302 302 302 302 302 301 301 301 303 304 304
321 320 321 320 319 320 318 318 317 317 317 318 318 318 318 318 316 315 315 314 314 314 313 312 310 308 308 308 307 307 307 306 305 305 303 302 301 301 300 300 300 300 302 301 301 301 301 301 300 300 300 301 302 300
322 321 322 321 322 320 320 320 320 319 318 319 319 319 318 317 318 318 314 313 313 313 312 310 309 308 307 306 305 306 304 304 304 302 301 300 300 300 300 300 301 302 302 301 301 301 301 300 300 299 299 300 300 299
322 321 322 323 322 322 321 322 321 321 322 320 320 319 319 319 319 318 313 311 311 311 309 309 308 307 306 305 305 304 303 303 302 301 300 300 299 299 298 298 298 299 300 300 300 299 299 299 298 298 299 298 298 297

GFSWCAN_925_thetae_012.txt.gz
Theta_e
301 302 302 302 302 302 302 301 302 302 302 303 301 301 302 303 304 304 304 305 307 311 310 310 310 312 311 311 312 316 318 322 330 331 328 324 326 327 337 339 341 343 346 341 337 337 340 334 335 341 337 330 333 333
303 302 302 302 302 302 302 301 301 302 302 302 302 302 302 303 303 304 305 306 306 307 309 310 310 310 310 311 309 307 312 320 325 325 330 328 333 335 337 343 339 342 341 346 343 341 335 335 332 332 331 329 331 329
302 302 302 302 302 301 301 301 301 301 302 303 303 303 304 303 303 304 304 304 307 307 308 307 309 312 312 311 311 308 309 313 318 315 321 328 334 333 339 339 341 338 336 341 341 339 339 337 335 334 332 331 330 330
302 302 302 302 302 301 301 300 300 302 302 303 303 303 303 303 303 303 304 303 305 306 309 309 312 311 313 311 310 311 309 310 312 312 315 323 329 325 332 334 336 337 336 337 339 338 335 332 330 330 330 328 328 328
302 301 301 302 301 301 301 300 300 300 301 302 302 303 303 303 303 301 301 303 304 308 310 309 309 312 313 312 313 313 309 310 312 312 314 316 322 324 324 328 332 334 334 336 336 334 333 331 329 325 324 325 322 321
302 301 301 301 302 302 301 300 300 300 302 302 302 301 302 302 302 303 307 308 306 305 305 310 310 310 311 312 312 312 311 309 312 311 313 313 314 318 324 323 323 331 328 326 330 330 329 328 326 321 320 321 320 320
301 301 301 302 302 302 301 300 300 300 302 300 300 302 301 302 302 303 307 308 307 305 307 311 312 310 312 312 312 310 311 311 310 309 311 312 312 314 315 321 323 326 325 324 325 324 318 319 318 319 321 322 321 320
301 301 301 302 301 302 301 300 300 301 300 300 301 301 301 301 300 302 304 306 304 304 304 311 313 312 311 311 314 311 311 310 310 310 310 312 312 311 314 314 315 316 317 317 317 317 317 318 318 317 318 318 318 317
303 301 301 301 301 302 300 300 300 300 300 301 301 300 301 303 304 308 308 307 306 307 309 312 314 315 309 311 312 312 312 314 311 311 309 312 323 327 323 320 319 317 318 317 316 316 316 316 316 316 316 316 316 315
301 301 301 300 301 300 301 301 301 301 300 301 301 304 304 307 308 306 306 306 306 306 305 309 309 310 308 311 311 315 313 315 314 313 312 324 325 320 318 318 318 319 318 317 318 318 316 316 316 316 316 316 315 314
301 301 300 301 302 301 301 301 300 300 301 302 304 306 307 308 306 304 307 311 310 312 309 307 307 308 310 314 316 312 314 315 317 315 314 325 325 320 318 318 318 318 319 317 316 317 316 317 316 315 315 316 316 315
302 302 302 302 302 301 301 301 301 302 303 303 304 304 306 306 304 308 308 310 312 310 309 308 307 312 312 311 315 314 315 315 317 316 324 328 324 319 319 319 319 317 319 319 318 318 318 318 318 317 316 315 316 318
302 302 302 301 301 301 301 301 301 303 304 304 306 307 307 305 302 310 311 310 310 310 308 309 310 310 309 309 313 314 315 315 314 324 326 322 318 318 318 318 318 318 319 319 319 319 320 321 322 320 318 320 319 320
302 302 301 302 302 302 302 302 302 303 304 306 307 307 306 308 309 307 311 313 312 310 311 310 311 312 312 312 314 316 316 314 320 325 324 319 316 316 315 316 318 318 319 319 319 321 321 320 321 322 322 322 321 320
301 302 302 302 301 302 302 302 303 303 304 306 307 308 310 310 309 312 312 313 310 309 309 311 312 312 312 313 314 313 316 324 324 323 318 316 316 314 314 317 317 316 316 317 318 320 321 320 320 320 322 321 322 320
302 302 301 301 301 301 302 302 303 305 306 307 307 309 309 311 311 311 310 310 308 309 309 310 314 313 315 314 315 317 323 323 321 318 316 316 316 315 313 312 314 315 316 315 316 317 319 320 319 319 321 322 322 321
302 301 301 301 301 301 302 303 306 307 308 308 308 308 310 309 311 310 308 309 309 311 314 314 315 316 313 313 319 320 320 319 315 316 316 315 316 315 314 315 316 317 316 316 316 316 317 319 320 320 317 320 322 322
301 301 301 302 303 303 304 304 306 307 308 307 309 307 308 309 309 308 309 309 309 312 313 315 314 315 317 320 319 318 315 313 317 314 314 315 314 314 316 316 317 317 317 317 317 317 318 318 316 316 319 320 320 320
301 302 303 302 303 304 306 306 306 306 307 308 310 307 307 308 307 308 309 308 308 309 310 312 315 316 316 314 315 313 313 313 314 315 314 314 315 316 317 317 318 317 317 317 317 317 318 318 317 316 318 320 317 318
302 302 302 304 305 305 307 305 308 306 309 307 307 309 307 306 306 307 307 306 307 308 310 313 314 315 314 312 311 312 313 313 314 315 315 314 316 316 316 315 316 317 317 316 316 314 313 313 314 316 317 318 317 315
304 304 304 304 306 307 306 306 307 307 307 307 308 308 310 308 309 310 310 308 307 307 311 310 311 311 312 313 314 315 314 315 314 314 316 316 316 318 317 317 316 316 314 315 311 312 312 311 314 313 314 314 315 315
303 304 304 305 305 304 304 305 304 304 305 305 306 307 309 310 310 308 306 309 310 313 310 310 309 310 311 312 313 317 318 318 317 318 318 318 317 316 315 316 316 314 316 315 315 312 311 311 313 313 313 313 314 315
303 302 303 304 303 301 301 304 309 308 309 307 308 311 310 311 307 305 308 307 308 308 310 311 310 312 313 314 315 317 317 317 316 316 317 317 319 319 318 317 317 316 315 314 314 312 310 312 312 312 311 312 312 312
301 301 302 303 303 303 304 307 306 307 309 308 308 307 309 309 307 309 312 309 308 310 315 315 317 316 315 316 315 316 316 316 317 317 318 318 315 317 314 312 306 307 308 308 308 308 308 309 309 310 311 312 312 312
302 301 301 303 301 303 307 309 307 307 308 308 308 309 309 308 312 315 315 315 315 315 314 314 314 314 316 315 313 316 317 318 318 316 316 316 315 312 311 307 306 306 306 305 305 305 306 307 307 306 307 307 308 310
304 304 302 305 305 306 309 310 309 309 309 310 310 313 311 312 318 317 314 312 312 313 313 313 315 317 317 317 315 316 315 315 313 311 310 308 306 306 303 303 302 304 304 303 303 303 304 305 304 304 304 304 304 305
311 315 306 304 308 309 312 314 312 311 314 314 314 316 316 319 320 318 313 313 315 317 316 317 317 317 316 313 311 310 311 309 310 309 308 306 305 305 305 304 302 303 302 302 302 302 303 302 303 303 302 303 306 307
313 318 320 314 315 316 317 317 317 319 317 316 319 319 318 319 318 315 314 316 315 316 316 315 313 309 308 308 308 307 306 306 307 307 307 306 304 302 301 301 301 300 301 300 301 302 302 302 301 301 303 306 305 304
320 317 315 317 316 316 315 314 314 312 312 312 314 315 316 315 314 315 316 315 312 311 310 309 308 308 307 307 306 306 306 305 305 304 303 301 299 301 301 300 300 300 300 300 301 301 301 301 301 300 300 302 303 302
317 316 318 318 318 317 316 312 313 312 313 314 314 315 315 315 316 313 313 314 313 311 308 308 308 307 306 305 305 305 305 304 304 303 300 299 299 300 300 300 300 300 301 301 301 301 301 301 300 300 300 300 300 299
318 317 319 319 321 321 316 313 314 313 314 315 314 314 315 313 314 313 312 312 312 309 308 307 307 306 305 305 304 304 302 303 303 301 300 300 300 300 299 298 299 301 300 300 300 300 299 298 298 299 299 299 299 298
320 320 320 321 319 318 317 317 317 318 318 316 317 316 315 314 314 310 311 311 310 308 308 307 306 305 304 304 303 302 302 301 300 300 300 300 299 299 300 299 299 299 299 298 298 297 296 296 297 296 296 297 297 296
322 323 321 320 321 321 319 320 321 320 320 320 320 319 319 319 318 314 309 308 307 306 306 305 303 302 301 301 301 301 300 300 300 299 299 299 300 300 299 298 298 297 296 295 294 294 293 293 294 294 294 294 294 294

GFSWCAN_925_thetae_015.txt.gz
Theta_e
303 303 303 303 303 302 302 302 301 301 301 302 302 301 302 303 303 303 302 302 305 309 309 309 310 310 309 311 314 315 314 322 325 330 332 331 332 330 341 340 341 340 343 343 337 335 340 332 334 337 334 329 329 330
301 302 302 303 303 302 302 301 301 301 301 301 302 301 302 302 303 303 302 304 304 306 307 308 308 309 309 309 310 309 309 320 322 323 327 327 335 333 337 343 337 339 339 343 338 335 331 333 331 330 330 327 329 329
302 302 302 302 302 302 302 301 301 301 302 302 302 301 301 302 302 303 302 302 304 306 306 306 309 310 310 309 308 310 309 313 318 318 320 328 333 331 337 339 340 337 335 338 339 334 334 333 331 332 329 327 325 326
302 303 303 302 301 302 302 302 301 301 301 301 302 302 302 302 302 303 303 302 303 304 309 309 309 310 311 310 310 309 308 309 311 314 318 324 330 322 330 332 336 336 337 338 338 337 333 330 330 329 329 328 327 325
301 303 304 301 301 301 302 302 301 300 300 302 300 301 302 302 302 303 301 300 301 305 311 309 307 310 312 311 310 310 308 310 311 315 316 318 322 327 325 327 332 333 334 335 338 331 331 330 329 325 324 324 321 322
302 303 302 301 301 302 302 301 301 300 299 302 302 302 301 301 302 300 306 306 304 305 305 308 307 309 309 310 310 311 307 308 311 312 313 313 315 325 326 328 325 326 329 327 333 331 327 327 322 322 321 321 319 318
303 301 301 301 302 302 302 301 300 301 300 302 301 300 302 301 302 300 304 305 305 304 306 311 311 308 309 310 309 308 308 308 310 309 311 310 312 313 318 321 316 316 325 327 325 320 319 319 321 320 319 318 317 315
303 301 301 302 301 301 302 301 300 300 300 300 300 301 301 301 301 301 301 304 303 303 303 308 312 309 310 310 312 308 310 308 309 310 310 313 319 318 322 320 317 316 316 316 317 316 319 318 316 315 314 315 315 314
303 302 301 301 300 301 301 300 300 300 300 300 301 301 301 302 301 306 307 306 304 305 309 310 314 313 307 308 310 311 309 312 309 309 316 319 323 325 322 317 317 317 315 315 315 315 315 316 315 315 315 315 314 314
301 301 301 300 301 300 301 301 301 300 300 301 301 303 305 305 307 306 305 304 304 304 304 308 309 311 309 310 311 313 311 313 312 311 320 323 324 320 315 315 314 316 315 316 317 318 317 317 316 316 315 315 314 314
301 300 300 301 301 301 301 301 300 301 301 303 303 305 306 306 306 302 306 308 308 310 307 307 307 308 308 314 315 312 313 313 316 313 326 327 326 319 315 316 315 315 316 315 315 315 315 316 316 316 316 315 314 314
302 301 302 302 302 301 301 301 301 303 303 303 304 304 305 304 302 307 306 308 311 311 307 309 308 307 311 309 313 313 314 314 317 318 324 329 323 317 316 317 317 315 317 318 317 317 317 319 319 318 316 316 317 318
302 302 301 301 302 301 301 301 302 302 303 304 304 305 303 303 301 309 310 309 308 307 307 308 309 309 309 308 312 313 316 316 317 323 325 323 319 318 316 316 317 316 317 318 319 320 320 320 320 320 319 320 320 318
301 302 302 302 302 302 302 301 302 304 304 305 306 305 306 307 309 308 312 312 311 311 309 308 312 312 310 312 313 316 315 318 323 325 323 318 316 315 315 317 316 315 315 316 316 318 319 318 318 320 320 320 320 318
302 302 301 301 301 301 302 302 302 303 304 304 307 311 312 310 310 312 313 312 310 309 308 310 312 310 311 312 313 313 320 323 323 323 317 315 314 312 312 312 313 314 314 314 314 314 316 318 318 318 319 320 321 319
301 301 301 301 301 301 301 302 304 305 305 306 308 311 311 311 312 311 312 311 309 309 308 309 311 311 313 312 317 321 322 323 320 316 314 313 314 313 313 312 312 312 313 313 313 314 315 316 317 317 319 320 321 319
301 301 301 301 301 301 302 303 305 306 306 307 310 309 310 309 309 309 307 309 306 310 313 313 316 317 312 315 320 318 320 318 315 315 313 312 313 313 312 312 314 314 314 314 315 315 315 316 316 316 315 317 319 320
301 302 302 302 303 303 304 304 305 307 308 308 308 307 306 307 308 307 307 306 308 309 310 315 312 316 318 320 318 317 313 311 312 312 313 312 311 311 313 312 313 314 314 314 315 314 314 314 313 313 314 318 318 318
302 302 302 303 304 304 304 305 304 306 307 306 306 305 305 305 304 304 305 304 305 306 308 310 313 315 315 314 313 311 311 311 313 312 312 312 313 313 313 314 314 314 314 314 314 313 313 313 313 314 315 316 316 316
302 304 303 304 306 304 305 304 306 304 307 305 307 307 305 305 303 304 305 307 305 306 309 312 313 313 312 311 309 310 311 311 311 313 313 311 313 314 314 314 314 315 314 314 314 313 312 312 312 314 315 315 316 316
304 303 304 304 305 305 303 303 303 304 304 305 303 304 306 305 307 306 305 304 307 305 310 309 310 309 308 310 311 312 312 311 311 312 312 313 314 314 315 316 315 315 313 314 312 314 312 309 310 312 312 314 315 315
303 303 303 304 303 301 301 302 301 301 303 303 303 304 306 307 305 304 302 306 307 308 307 307 306 306 308 310 311 314 316 317 315 315 316 316 313 313 314 316 315 314 313 311 311 310 311 309 310 310 310 310 310 311
303 302 302 302 301 299 300 302 307 304 306 305 304 307 306 306 304 301 306 305 305 304 306 307 309 309 311 314 316 316 316 316 315 314 315 315 316 316 315 312 309 307 304 305 305 305 306 306 307 307 309 309 309 310
302 300 300 302 302 304 301 305 303 307 307 306 306 307 308 308 308 310 313 311 308 308 312 313 314 314 314 314 314 314 315 315 315 315 317 315 313 308 305 304 304 304 304 303 303 304 305 305 304 304 304 304 304 304
304 303 301 302 301 304 307 307 307 307 308 308 310 311 310 309 313 315 316 314 313 313 313 313 313 312 314 314 311 313 312 314 314 313 309 312 310 306 304 304 303 303 302 302 302 302 302 304 303 303 302 302 302 303
304 304 302 306 305 307 309 310 308 309 309 311 312 312 310 313 317 317 315 313 312 312 311 311 312 313 311 312 312 309 307 309 307 305 304 305 305 303 300 300 299 301 301 301 301 301 302 302 301 301 302 305 306 306
309 311 305 302 305 305 309 311 309 309 312 312 311 315 315 318 318 317 313 313 312 314 314 316 315 313 308 305 305 305 306 306 307 306 304 304 304 303 302 300 300 300 300 300 300 301 301 301 300 300 303 305 304 303
311 311 312 308 309 309 314 314 315 315 317 315 314 317 319 318 316 314 313 315 315 315 314 309 306 306 306 305 305 305 304 304 305 305 304 302 301 301 300 300 299 299 300 300 301 301 301 300 300 299 302 304 303 301
312 314 313 313 313 314 312 311 312 310 309 311 313 314 315 313 312 312 311 311 311 308 306 306 305 305 305 305 305 304 303 303 303 302 301 298 297 300 300 300 299 300 301 301 301 300 300 299 299 299 299 301 302 300
315 312 316 318 317 317 314 310 312 311 310 311 311 311 311 312 312 311 310 308 307 305 305 304 304 303 303 303 302 302 302 302 301 300 297 297 297 298 299 298 298 299 300 300 299 299 298 298 298 298 298 298 298 298
315 313 315 317 319 318 315 310 311 312 313 313 312 313 312 310 309 307 307 306 306 305 304 303 302 302 301 301 300 300 299 300 300 299 299 299 298 299 299 299 298 298 298 298 297 296 296 296 295 295 295 296 296 295
318 319 318 317 315 316 316 316 316 316 315 316 319 317 317 315 311 309 308 305 305 303 302 301 300 300 300 300 299 299 299 297 297 297 297 298 299 299 299 298 298 296 296 295 294 293 293 293 293 292 292 293 293 292
321 320 320 319 318 318 317 319 319 318 320 319 316 315 311 309 310 311 309 307 303 301 300 299 299 299 298 297 297 296 296 296 296 295 296 297 297 296 295 295 294 292 292 291 290 290 290 291 291 289 289 289 289 290

GFSWCAN_925_thetae_021.txt.gz
Theta_e
301 301 302 302 302 303 303 303 303 303 303 303 303 302 301 301 302 302 303 303 303 304 303 303 303 304 308 310 310 311 313 319 325 334 337 333 335 337 339 339 339 343 346 348 344 342 338 335 336 341 339 337 337 337
300 300 301 302 302 303 304 304 303 302 302 302 302 302 301 301 302 302 303 303 302 303 302 302 302 303 305 306 307 310 314 312 320 326 329 331 339 338 343 342 338 342 342 346 343 341 335 331 335 333 333 336 337 343
301 301 301 302 302 301 302 303 302 302 302 301 301 302 302 302 301 302 303 302 301 302 303 303 303 302 303 304 305 308 312 314 319 319 323 327 337 337 345 344 341 340 337 343 342 337 332 329 328 327 327 328 328 330
301 302 303 302 303 302 302 301 301 302 302 301 301 302 301 301 301 302 303 303 302 302 303 304 306 306 307 307 306 305 309 311 311 315 322 327 333 327 339 337 342 332 339 339 339 335 332 328 329 328 327 325 325 326
301 303 303 303 302 301 301 302 302 302 301 300 300 301 301 302 302 302 302 302 302 302 303 303 302 307 307 307 307 307 308 310 311 314 320 326 326 332 331 333 329 326 334 340 340 335 335 330 328 326 326 325 325 325
302 302 301 300 301 302 302 302 301 300 300 300 300 301 302 302 302 301 302 302 302 302 302 309 308 309 309 308 308 309 309 310 310 318 321 316 319 331 334 333 323 322 325 325 334 331 329 325 323 320 321 320 321 321
302 302 301 301 301 301 302 302 301 300 300 300 301 302 300 302 302 302 302 302 301 302 305 310 311 311 310 309 309 309 310 311 312 316 321 317 322 327 327 328 323 322 325 325 325 324 323 321 320 319 319 318 319 319
301 301 301 301 300 301 301 300 300 300 299 300 300 300 301 301 301 303 303 301 302 302 303 309 312 315 310 313 315 310 312 311 312 313 320 323 323 324 325 322 321 321 322 322 322 321 322 321 321 320 319 320 320 319
300 300 301 300 300 300 301 301 300 300 300 300 300 301 301 301 302 303 305 306 302 302 306 309 314 318 312 310 312 312 312 314 311 325 323 324 322 324 322 321 320 320 321 322 320 320 320 321 321 321 320 320 320 320
300 300 301 301 300 300 300 300 300 301 302 302 302 303 307 305 305 305 305 305 303 304 305 308 309 314 311 315 315 315 314 315 327 324 322 324 323 319 319 319 319 320 320 318 321 322 322 323 323 322 322 322 322 322
301 301 301 302 301 301 301 301 302 303 303 304 305 307 305 305 304 306 308 310 310 311 309 311 311 314 312 316 317 315 316 315 322 324 325 325 320 320 320 320 320 322 321 321 322 322 323 323 323 323 323 323 324 324
302 301 301 301 301 301 301 301 302 303 303 303 303 303 303 306 307 308 310 310 312 314 311 314 315 313 313 312 316 316 317 319 327 324 326 325 322 320 320 321 320 320 321 322 321 322 322 322 323 323 324 324 323 322
301 301 301 301 301 301 301 302 302 302 303 304 304 305 306 307 312 313 316 316 316 313 312 314 314 316 315 312 317 318 320 324 323 324 323 323 321 320 320 319 318 318 318 319 319 320 321 321 321 322 324 323 323 322
301 301 301 301 301 301 301 301 301 303 303 306 308 310 311 313 313 314 314 314 313 313 314 312 314 316 315 316 318 319 322 323 324 323 322 321 320 318 317 317 318 319 318 319 318 319 319 320 321 321 321 322 322 323
301 301 302 303 303 304 304 303 303 304 305 308 307 308 308 308 311 312 313 314 313 313 312 313 314 314 316 318 321 321 322 322 323 323 321 319 318 317 318 318 318 318 319 318 318 318 318 318 319 320 320 321 323 323
301 301 302 303 304 305 304 304 304 305 305 307 308 310 311 312 313 313 313 313 311 311 313 314 316 316 317 320 321 322 321 323 322 320 319 318 318 318 318 318 318 318 318 318 318 318 318 318 319 318 319 320 321 322
302 302 303 303 305 305 305 305 305 307 308 310 312 310 310 310 311 311 310 311 309 314 317 317 319 318 317 320 321 321 320 320 318 319 318 318 319 318 318 318 318 317 318 317 317 317 317 317 317 318 320 319 319 320
301 303 303 303 305 304 305 305 307 309 310 310 311 309 308 309 310 310 309 309 311 314 317 318 317 319 320 320 320 318 318 316 317 318 317 317 317 317 316 317 316 317 317 317 317 317 317 317 318 318 318 318 318 319
301 303 303 303 305 304 307 307 305 309 309 308 308 308 308 309 309 308 309 309 308 309 314 316 317 317 318 318 318 317 317 318 318 318 317 316 316 316 316 317 317 318 318 318 317 317 316 316 316 314 315 316 317 318
302 302 302 303 304 305 307 307 304 308 310 309 307 308 308 310 309 308 310 309 310 315 316 316 316 316 316 315 313 315 317 316 318 318 317 317 316 317 318 317 318 317 317 316 315 312 315 315 313 311 312 313 315 317
303 303 303 303 303 303 305 305 307 306 307 309 307 308 310 309 310 310 310 308 314 313 314 313 313 312 311 311 311 313 316 316 318 318 319 319 317 316 315 316 314 311 309 309 309 309 308 309 310 311 311 312 311 312
302 303 302 302 302 302 304 302 305 305 307 307 308 307 310 310 311 312 308 313 313 313 312 313 314 311 312 314 313 313 314 316 318 317 314 314 317 319 314 311 307 307 306 305 305 305 306 306 305 306 307 307 307 307
302 302 302 302 304 303 304 303 308 307 309 309 308 310 311 312 311 311 314 311 310 309 310 311 314 315 314 316 315 315 315 316 318 317 316 316 316 312 306 306 306 306 305 303 303 303 303 303 304 304 304 305 305 305
302 301 303 304 305 306 306 308 307 308 309 309 311 312 313 311 312 316 316 315 316 314 316 316 315 317 315 312 312 309 311 314 311 309 312 312 307 305 304 304 303 302 302 302 302 301 301 303 302 303 303 304 304 305
304 304 304 304 305 308 310 310 310 311 312 312 314 315 314 311 317 318 319 319 318 317 316 315 315 314 313 309 307 307 305 306 307 308 306 308 306 305 305 303 302 301 301 301 301 301 302 302 302 302 302 303 304 306
307 307 307 309 309 311 311 314 313 311 311 313 314 313 313 317 318 318 319 318 317 316 315 313 310 309 307 305 306 305 304 304 305 306 305 304 305 304 304 304 303 302 300 300 301 301 302 302 302 302 301 301 304 305
314 314 310 305 307 307 311 311 311 311 314 316 315 316 318 318 318 319 319 314 313 308 306 304 304 304 304 303 302 302 302 302 302 303 302 301 301 300 301 301 301 300 299 300 301 301 301 301 301 301 301 301 301 303
312 312 315 312 308 309 314 315 315 317 317 315 315 319 318 317 312 309 312 306 305 303 302 302 301 302 301 301 300 299 300 300 301 301 301 301 300 299 298 298 298 298 298 299 299 300 300 300 300 300 300 300 301 302
313 314 313 315 313 314 314 316 315 313 314 316 316 315 311 307 306 304 303 303 302 302 302 302 300 300 300 300 299 298 297 297 299 300 300 300 300 298 298 298 298 299 298 299 298 297 297 297 297 297 297 297 297 297
319 315 318 318 318 319 316 313 313 310 309 309 309 310 310 309 309 307 304 302 301 301 301 300 299 298 298 298 298 298 296 295 296 296 298 298 297 296 296 296 297 297 297 297 297 297 294 295 294 294 293 293 293 292
319 318 318 318 321 318 315 314 312 312 311 312 311 312 312 310 309 308 307 304 301 300 299 298 297 295 296 295 295 295 295 293 293 292 292 293 292 292 292 292 293 293 293 293 292 292 292 293 292 292 291 291 290 290
320 320 321 321 320 319 317 318 319 318 315 314 313 312 312 312 312 309 308 303 301 299 298 297 295 294 293 293 293 292 291 291 290 290 290 290 290 290 290 290 290 290 290 290 290 290 290 290 290 289 289 289 289 289
320 321 321 321 321 321 320 320 320 317 315 314 314 313 312 311 312 311 308 297 297 297 297 296 294 293 292 292 291 291 290 290 289 288 287 287 286 287 287 287 288 288 288 288 288 288 288 288 288 288 289 289 289 289

GFSWCAN_925_thetae_024.txt.gz
Theta_e
301 302 302 302 302 302 303 303 304 304 303 302 302 303 304 302 302 302 303 303 303 304 304 306 306 306 307 307 312 313 312 319 323 331 332 331 333 331 331 334 340 340 340 338 339 342 343 337 339 341 345 345 342 342
301 301 302 302 303 303 303 301 303 303 302 302 302 303 303 302 301 302 303 302 304 304 304 304 304 304 305 305 306 308 311 315 315 324 328 330 337 338 336 339 339 339 336 336 342 342 338 335 339 337 338 342 347 343
301 301 303 303 303 303 303 303 302 302 302 302 302 303 302 302 302 302 303 303 303 303 304 307 307 305 305 304 305 309 311 310 316 315 319 325 335 337 341 340 339 343 340 341 342 338 337 334 331 332 334 335 338 343
301 302 302 302 302 301 301 301 301 302 302 302 301 302 302 302 302 302 303 303 303 304 306 306 305 307 307 307 304 305 309 313 312 314 320 323 332 331 342 341 344 337 341 342 340 337 332 333 333 330 330 331 332 336
301 302 301 301 301 302 302 302 302 302 302 301 300 301 301 302 302 302 303 303 303 304 306 306 305 309 310 305 309 307 307 309 313 315 321 323 325 330 335 335 331 326 333 341 339 335 336 334 330 328 330 330 330 331
302 302 301 301 300 301 302 302 301 301 300 301 300 301 301 302 302 304 305 303 303 303 305 307 309 311 313 311 310 310 311 310 313 316 320 321 319 326 338 333 323 325 329 330 338 334 331 328 323 322 323 323 324 324
301 301 301 301 300 301 301 300 300 300 300 300 301 301 300 301 303 304 305 303 302 303 303 309 313 314 312 313 312 313 312 312 313 317 321 322 325 327 327 327 323 326 329 332 332 329 326 322 323 322 320 320 320 321
300 300 300 300 300 300 301 301 301 300 300 300 300 300 301 301 302 303 302 300 302 302 304 309 311 317 313 314 314 313 314 314 314 316 320 324 325 323 326 322 323 324 324 322 323 323 323 322 321 322 321 320 321 322
302 301 301 301 301 301 301 301 301 302 302 302 302 301 303 304 304 304 305 306 302 302 303 307 315 318 314 314 312 312 313 316 315 324 324 323 324 325 324 323 323 323 323 322 321 321 322 323 323 323 322 321 322 322
301 301 301 301 301 301 300 301 302 303 303 304 305 307 309 308 305 306 306 306 305 305 305 308 312 317 315 316 314 316 315 318 325 324 323 321 324 322 322 322 323 321 321 321 321 321 320 322 324 323 323 323 323 323
301 302 302 301 301 301 301 302 302 304 305 306 307 308 308 307 308 310 311 312 311 309 306 310 315 317 314 319 319 317 318 319 324 325 326 321 321 323 320 321 322 323 322 323 323 322 324 323 323 323 324 324 324 325
301 301 301 301 301 302 301 301 301 304 305 304 304 304 306 310 311 311 313 313 315 316 314 317 317 316 316 315 319 319 320 322 324 325 325 324 321 321 322 321 321 322 323 323 324 324 324 324 324 325 325 325 324 324
301 301 301 302 303 303 304 304 303 302 304 307 308 309 311 313 316 316 316 316 317 316 315 317 318 318 318 317 320 321 322 324 324 323 323 324 321 321 321 320 321 321 321 322 323 323 323 323 324 325 326 324 324 325
301 301 302 303 303 304 304 303 303 304 307 309 309 310 310 313 315 316 317 317 316 316 317 317 320 318 318 319 320 322 324 323 323 321 325 323 320 319 319 320 321 322 321 320 320 320 320 321 322 322 324 325 325 325
301 302 302 303 303 305 304 304 305 307 308 309 307 309 313 312 313 315 315 316 316 315 316 317 317 317 319 320 321 323 323 323 323 324 322 320 319 321 322 321 321 321 321 320 320 320 320 319 319 320 320 322 324 324
301 303 304 303 303 305 305 306 308 308 309 312 312 314 314 315 315 315 315 316 315 316 317 318 318 318 322 321 322 323 322 324 323 321 320 320 321 322 323 322 321 321 321 321 320 319 319 319 320 320 319 319 319 320
302 304 303 303 303 306 306 308 310 311 314 313 314 313 313 314 315 315 315 315 315 318 320 319 321 321 320 320 322 319 322 322 323 322 321 322 323 323 322 322 322 321 322 321 321 320 321 320 319 318 320 320 319 319
304 304 303 303 304 307 310 309 311 311 312 312 312 314 314 314 314 315 315 315 315 318 319 320 319 320 320 321 321 319 319 321 322 321 321 322 322 322 320 322 321 321 321 321 321 321 320 320 319 318 317 319 319 318
303 303 302 303 304 307 311 310 311 312 311 311 311 312 313 313 314 314 315 316 315 315 316 316 318 320 320 320 321 321 321 321 322 320 320 321 320 322 321 321 321 321 321 321 320 318 318 320 319 316 315 315 315 316
304 303 303 303 305 309 310 311 309 311 312 310 311 312 313 314 314 315 315 315 315 315 316 316 318 319 320 317 317 320 320 320 320 320 320 320 320 320 320 320 320 319 317 316 314 312 315 315 315 315 314 314 315 315
306 305 304 305 307 308 309 310 312 311 310 311 311 312 313 315 316 316 317 316 316 317 318 318 317 315 314 314 315 317 320 320 321 322 322 323 320 319 316 314 313 313 313 312 313 312 311 311 310 310 311 312 311 313
306 303 306 306 307 308 310 308 310 310 311 311 312 313 315 317 317 315 312 316 316 316 315 316 317 317 319 320 321 319 319 318 318 319 317 317 319 320 317 312 312 312 309 309 309 309 309 308 307 307 308 308 308 309
305 305 306 307 309 308 309 309 312 312 315 314 314 315 315 315 315 314 316 315 316 315 316 317 316 314 313 311 311 313 314 314 317 315 317 317 315 312 310 309 308 308 309 307 307 306 306 304 306 305 305 306 306 307
304 307 310 311 312 313 312 314 313 314 315 315 315 317 317 318 318 319 318 318 319 319 319 317 314 312 312 312 311 309 308 309 310 310 310 311 311 310 309 308 307 306 305 305 305 304 304 304 304 304 304 304 305 305
307 309 309 311 312 315 315 316 316 317 318 318 319 319 319 318 320 318 317 319 320 318 314 311 311 312 311 311 309 308 306 306 308 310 308 307 308 309 308 307 306 305 304 303 304 303 303 304 304 304 304 303 303 304
312 313 313 316 317 317 318 320 319 318 317 319 319 318 318 320 318 320 318 316 315 311 310 310 310 310 308 306 307 305 304 303 304 306 306 305 304 305 306 306 306 304 302 301 302 302 303 303 303 303 303 303 302 302
319 321 317 311 313 314 318 316 316 317 319 320 320 321 320 319 319 313 313 308 307 305 305 305 306 306 306 304 303 302 301 301 302 303 303 303 303 302 302 302 302 301 300 301 301 301 302 302 302 302 302 302 301 302
319 318 321 318 316 315 318 319 319 320 320 319 319 319 316 314 312 309 307 305 303 303 305 305 305 304 304 303 301 300 299 299 300 300 300 301 300 300 299 299 299 299 300 300 300 300 301 301 301 301 300 300 299 299
321 320 318 321 318 318 319 319 318 317 316 319 319 315 310 309 308 307 305 304 304 304 304 303 302 302 301 300 299 299 298 297 298 299 299 300 299 298 297 297 297 298 298 298 298 298 296 296 296 296 296 296 296 296
323 320 322 321 321 320 318 316 315 314 313 311 309 311 311 310 309 308 307 305 304 303 302 301 300 299 299 298 298 297 296 295 295 295 296 296 295 294 294 294 294 294 294 294 295 295 294 294 294 295 294 294 294 293
322 322 322 321 322 319 316 314 314 313 311 311 313 312 312 312 311 308 306 305 303 303 302 301 300 298 297 296 296 295 295 293 292 292 291 291 291 291 291 292 292 292 292 292 292 292 292 292 292 292 292 291 291 291
322 323 323 321 323 319 316 317 317 313 313 313 313 312 312 314 312 312 309 304 303 302 300 299 298 296 295 295 294 293 292 293 291 290 289 288 288 288 289 289 290 290 290 290 290 290 290 290 290 290 290 290 290 290
322 319 318 319 321 322 321 320 319 314 314 315 315 314 313 313 312 310 306 301 300 300 299 297 296 295 294 293 292 292 292 291 290 288 287 286 285 286 288 288 288 288 289 289 289 290 290 289 289 289 289 289 289 289

GFSWCAN_925_thetae_027.txt.gz
Theta_e
301 302 302 302 303 304 303 303 303 303 304 304 302 303 303 304 304 303 304 304 302 304 305 307 307 307 307 308 310 313 314 316 319 324 327 324 326 326 327 330 331 331 334 333 335 338 345 341 340 340 345 348 348 346
301 302 302 302 302 302 302 303 303 303 302 302 302 303 303 304 304 303 304 305 304 305 305 305 305 305 307 308 309 309 312 311 315 323 324 325 332 334 334 334 330 332 332 332 334 337 344 341 345 342 341 344 347 347
301 302 302 301 301 302 302 302 301 301 302 302 302 303 303 302 302 302 303 304 304 304 306 307 308 307 307 306 306 309 309 310 313 315 320 323 331 334 341 341 343 331 331 339 345 344 342 339 338 338 339 342 344 344
301 302 302 301 301 301 301 302 302 302 302 302 302 303 303 302 302 302 304 303 303 305 308 307 306 308 308 307 307 306 308 314 313 313 318 323 327 332 337 337 337 333 332 344 346 341 340 337 336 336 337 341 344 345
302 301 301 301 301 301 302 302 302 301 301 301 301 301 303 302 302 302 303 304 304 304 308 308 306 310 310 307 308 307 308 311 313 313 319 324 322 327 330 337 332 329 333 345 346 340 342 338 336 334 335 336 337 338
300 301 301 301 300 300 300 301 301 300 300 300 301 301 302 302 301 303 307 305 304 304 306 308 309 312 313 311 310 312 310 310 311 316 317 322 320 323 329 336 326 327 332 336 341 337 333 329 328 327 328 328 328 330
301 301 301 301 300 301 301 301 301 301 301 300 300 300 300 300 302 305 307 304 302 302 303 308 313 314 315 315 313 313 313 314 314 315 317 324 322 323 329 328 326 329 335 335 333 332 331 328 326 325 324 323 321 323
301 301 301 301 301 301 301 301 302 302 303 303 302 301 301 301 302 302 303 302 303 303 303 308 311 313 315 316 317 315 316 316 316 315 322 323 323 325 325 324 326 326 325 325 328 329 326 324 323 319 319 323 322 323
302 302 302 301 301 301 301 302 302 302 304 303 304 304 305 305 307 308 305 305 301 303 305 304 309 320 313 317 315 316 315 318 316 318 322 322 322 323 324 325 324 323 323 322 321 322 320 319 321 325 322 324 324 323
301 301 301 301 301 302 302 302 302 302 305 306 307 308 311 310 308 307 307 307 305 305 303 307 310 319 318 317 316 316 317 321 323 324 321 319 321 319 324 324 322 321 320 319 319 319 321 323 325 324 324 325 325 324
301 301 301 302 303 303 304 304 304 303 308 309 310 311 309 308 310 309 313 311 308 308 307 309 315 320 316 319 317 317 320 323 325 322 322 316 320 320 322 324 322 321 319 319 318 318 318 319 323 325 324 324 325 326
301 301 301 302 302 303 304 304 304 307 308 306 305 305 308 312 313 314 316 316 316 318 317 318 319 318 320 317 321 320 323 324 326 324 322 317 320 320 322 323 324 324 323 323 321 321 321 324 325 325 326 325 324 325
301 301 301 302 303 303 304 304 304 304 306 309 309 311 311 314 318 316 316 318 319 318 317 318 322 322 323 320 323 323 323 325 324 323 321 318 321 321 321 323 323 323 324 325 324 323 324 325 325 325 326 325 325 325
301 301 301 304 303 303 305 305 305 308 309 312 312 318 315 316 317 316 318 319 317 318 318 319 321 320 320 321 324 323 324 324 324 323 323 318 319 320 321 323 322 322 322 321 321 322 323 322 324 324 325 325 325 326
301 301 304 305 303 304 305 306 308 311 311 312 313 319 316 316 317 317 318 319 320 317 318 321 321 320 321 322 323 323 323 324 324 324 321 320 319 321 323 322 323 323 321 321 321 320 320 320 321 320 320 322 324 324
301 305 306 303 303 304 307 310 312 313 314 316 315 315 315 317 317 317 318 319 319 320 320 321 320 320 323 324 324 324 324 325 323 322 322 324 324 324 324 323 322 321 320 320 320 320 320 320 320 320 319 319 319 320
303 307 305 302 304 307 310 312 313 313 313 312 313 313 315 317 318 318 318 318 318 319 320 319 322 323 321 322 322 321 325 319 320 323 324 325 325 324 323 323 322 322 322 320 319 320 320 319 319 319 321 320 319 319
306 306 305 303 304 309 312 312 313 312 312 312 313 314 315 316 317 317 318 318 319 320 320 320 320 321 322 321 322 323 323 324 325 325 324 324 323 323 322 322 321 321 321 321 321 321 319 319 323 318 318 318 320 319
305 305 304 304 305 309 313 312 313 313 312 313 313 314 316 317 317 316 316 317 317 318 319 319 319 321 322 323 324 324 325 325 325 325 322 323 322 322 321 321 320 321 321 318 317 318 318 318 318 317 316 316 317 317
307 306 307 305 307 312 312 312 311 312 312 313 313 315 317 318 317 318 318 318 318 318 319 318 319 321 321 322 323 323 324 326 326 326 324 321 320 319 318 317 317 317 317 316 314 313 315 314 314 314 314 315 315 315
310 309 307 309 310 311 311 312 313 312 313 314 315 316 318 318 318 319 318 317 319 319 320 320 322 322 321 321 320 321 322 323 322 321 322 322 321 318 317 316 315 314 314 314 315 314 313 312 311 311 312 312 312 312
311 307 310 310 312 312 314 312 314 313 314 315 317 316 317 317 318 316 316 318 318 318 317 318 317 319 318 317 316 315 315 316 316 316 317 319 320 318 316 315 314 314 313 312 311 311 310 309 308 307 308 308 308 309
309 309 312 313 314 314 315 314 315 315 317 317 317 318 319 319 320 317 319 318 318 318 318 316 315 313 314 312 312 311 312 314 314 313 312 313 313 312 312 311 310 310 310 309 308 308 307 306 307 306 307 307 307 307
309 312 316 318 318 317 317 318 317 317 317 318 319 321 320 320 318 318 318 319 319 315 315 317 314 315 314 315 313 311 309 309 310 311 310 310 312 311 311 310 309 309 307 306 306 306 306 306 306 306 306 306 306 306
314 314 317 319 319 321 320 320 320 319 320 319 320 320 321 320 319 318 318 315 314 313 313 313 313 313 312 311 310 308 306 306 308 310 308 307 307 307 308 307 307 307 306 305 304 304 304 305 305 305 305 305 305 304
320 319 319 321 321 321 321 321 321 321 321 320 319 320 321 321 320 317 314 312 311 311 311 310 311 311 310 308 308 306 304 303 304 306 305 306 306 305 306 306 306 304 303 302 303 303 303 303 304 304 304 304 303 303
322 323 321 318 319 320 321 320 320 321 321 321 320 320 320 319 315 310 310 306 308 306 307 306 306 306 306 305 304 303 302 301 302 302 302 304 303 302 302 302 302 300 300 301 302 302 302 302 302 302 302 302 302 301
323 323 323 321 321 320 321 321 320 320 320 321 321 319 318 316 312 308 307 306 307 307 307 306 305 304 304 302 301 301 300 299 299 299 300 301 300 299 298 298 297 297 298 298 298 299 299 299 298 299 299 299 299 298
323 323 322 322 322 321 320 320 319 318 317 319 318 316 313 311 309 309 308 307 307 306 306 305 304 302 301 300 300 299 298 297 297 298 298 299 298 296 295 295 296 296 296 296 296 295 295 295 295 295 296 297 296 296
323 322 323 322 322 321 319 318 318 316 315 314 313 311 310 309 308 309 308 307 306 306 305 304 302 300 299 299 298 298 297 296 295 294 295 295 294 293 293 294 294 294 294 294 294 294 294 294 294 294 294 294 293 293
321 320 322 322 322 319 318 317 315 314 314 314 313 313 313 312 312 310 307 306 305 305 303 302 301 299 298 297 297 296 296 296 294 292 290 290 291 291 292 292 292 292 292 293 293 293 293 293 292 292 292 292 292 292
320 321 320 321 321 319 317 319 317 318 316 314 315 314 314 316 314 312 306 304 303 303 301 300 299 298 297 296 295 295 293 294 293 291 289 289 289 290 290 291 291 292 292 292 292 292 292 292 291 291 291 291 291 291
318 318 318 318 319 320 321 322 320 318 317 317 316 315 313 313 312 308 306 304 303 301 300 300 298 298 297 296 295 294 294 293 290 289 289 288 288 288 290 290 291 291 291 291 291 291 291 291 291 290 290 290 291 291

GFSWCAN_925_thetae_030.txt.gz
Theta_e
302 302 302 301 301 301 302 302 302 303 303 304 303 303 303 303 303 305 305 305 306 303 304 306 306 308 308 308 308 311 312 315 315 318 321 321 325 325 325 326 330 331 332 330 334 338 336 336 339 340 350 350 348 347
302 302 302 302 301 301 301 302 302 302 302 303 303 303 304 304 304 304 305 305 305 305 305 305 306 306 307 307 308 309 311 312 315 320 323 325 326 331 332 331 327 331 328 333 335 337 347 341 348 345 343 345 346 346
302 301 301 301 301 301 302 302 302 301 302 303 304 304 304 304 303 303 305 304 304 305 306 307 308 307 307 307 306 310 309 309 311 315 317 323 327 329 336 336 338 335 334 337 334 335 343 342 340 341 342 344 344 345
300 301 301 301 301 301 301 301 301 301 302 303 303 303 303 303 302 302 304 305 304 305 307 307 307 308 308 308 309 307 307 309 315 313 315 322 325 325 331 331 333 334 332 337 340 348 343 341 340 340 342 344 345 348
301 301 301 301 301 301 301 301 301 301 301 302 302 303 302 304 302 303 304 305 304 305 308 307 306 307 308 311 309 309 309 309 317 315 316 322 324 325 328 329 333 330 332 336 348 335 336 343 339 340 341 342 343 345
301 301 301 301 301 301 301 301 301 302 302 303 302 301 301 302 302 303 306 305 305 305 305 309 307 309 312 313 312 310 310 310 311 315 315 318 321 322 328 331 326 325 326 331 333 332 330 336 333 332 332 334 336 336
301 302 302 301 301 301 301 301 302 302 302 302 304 303 301 301 302 305 307 304 303 303 305 307 309 312 313 316 311 312 311 311 312 316 317 319 323 323 329 329 324 327 329 332 329 330 330 327 328 326 326 326 325 327
301 301 302 301 301 302 303 303 303 303 302 303 304 303 303 303 303 304 304 304 303 303 303 307 309 311 315 318 314 314 315 314 315 315 319 321 323 326 326 324 326 325 325 330 330 327 325 325 324 325 325 325 325 326
301 301 301 302 302 303 303 302 304 305 304 305 306 305 306 306 307 308 306 305 302 304 306 305 310 313 314 318 318 318 320 320 319 320 321 321 323 326 324 326 322 322 323 325 324 325 324 325 327 327 326 323 324 327
301 301 301 301 301 301 301 303 304 305 305 308 308 310 312 310 308 307 306 306 303 303 301 302 304 312 315 318 319 317 319 322 321 320 319 318 321 320 324 321 320 319 319 322 325 326 327 325 324 325 325 324 323 322
300 301 301 301 302 303 303 304 305 305 310 311 311 312 310 309 310 311 313 310 308 307 307 307 312 319 316 320 320 320 322 322 320 322 320 317 318 318 321 321 320 318 318 318 318 320 321 324 326 325 327 326 326 321
300 301 301 301 303 304 303 305 305 307 309 307 307 308 310 313 314 314 314 315 316 319 318 319 320 321 318 318 320 321 322 321 323 323 320 319 316 321 322 323 321 320 319 321 321 322 322 323 323 326 327 326 325 326
300 300 301 302 305 304 303 305 306 306 308 311 312 315 314 315 320 314 316 317 319 318 318 319 322 320 320 320 322 324 323 326 323 321 317 317 318 320 322 324 325 324 324 325 325 324 325 326 326 326 327 326 326 327
301 300 302 306 306 303 305 307 309 309 311 314 315 318 319 319 318 314 317 318 319 319 320 321 325 322 323 324 324 326 325 323 322 321 316 315 318 320 323 325 324 325 324 323 323 322 324 325 326 324 325 326 325 327
302 301 305 307 305 304 308 310 311 311 314 316 317 320 318 319 318 320 319 319 322 322 320 324 321 322 323 325 328 325 324 321 319 317 317 319 319 321 324 326 324 322 323 322 321 321 323 322 322 323 324 323 323 323
304 304 308 307 304 305 311 313 314 316 317 317 315 317 317 318 318 319 321 318 320 321 321 320 322 324 324 324 323 323 324 324 323 323 322 322 323 324 325 326 325 326 323 323 323 324 322 322 324 323 321 320 320 320
305 309 308 306 305 308 313 313 314 313 313 313 315 316 317 318 320 318 318 319 320 323 322 322 324 324 322 321 322 321 321 321 320 322 322 322 322 323 323 327 325 325 325 321 321 322 321 318 320 322 325 320 320 320
309 309 308 306 306 311 314 313 315 313 312 314 315 317 318 319 320 321 320 321 321 322 322 321 320 322 323 324 324 322 322 322 323 323 325 327 325 327 325 327 325 322 323 322 320 322 319 318 324 321 320 319 320 319
306 306 308 307 306 308 314 312 314 313 314 315 317 317 318 320 318 319 321 321 320 318 319 319 321 322 323 323 325 325 325 324 321 325 327 326 323 325 324 322 323 321 320 320 319 319 317 317 316 316 316 317 317 317
309 310 310 309 309 314 313 314 313 313 315 317 317 319 318 319 319 318 319 319 319 319 321 322 323 324 325 325 326 326 325 325 324 325 325 320 319 320 320 319 318 320 318 317 315 313 315 314 313 313 313 313 314 314
313 312 311 312 314 313 314 314 314 314 316 319 318 319 321 321 319 318 316 316 318 319 321 321 321 321 320 319 317 319 323 319 324 319 320 323 317 317 316 316 315 315 314 313 314 313 312 311 310 309 309 310 310 310
313 311 314 314 315 315 316 315 316 316 318 319 318 319 321 320 318 318 317 318 320 321 323 317 316 316 317 319 316 314 314 317 316 316 315 316 315 315 314 313 313 313 312 311 310 310 309 308 307 308 309 308 308 308
312 313 317 317 318 315 317 317 318 318 319 319 320 320 320 320 320 318 320 320 320 320 320 317 318 317 317 315 312 310 310 312 314 312 312 311 313 312 312 312 311 311 310 309 308 308 308 307 307 307 308 308 308 308
313 316 319 321 320 320 319 319 319 319 319 320 322 322 321 320 317 319 317 318 317 315 315 317 313 315 313 313 311 310 308 307 308 309 308 309 309 309 309 309 309 308 307 307 306 306 305 306 306 307 307 307 307 306
317 317 321 318 322 322 321 320 320 320 321 321 321 323 322 322 320 319 317 313 313 313 313 312 311 312 311 310 309 307 305 305 306 307 306 307 307 307 306 306 306 304 304 304 304 304 305 305 305 305 306 305 305 305
319 322 322 321 321 321 321 321 321 321 321 320 318 319 322 322 319 317 314 311 311 310 310 311 311 311 310 308 307 306 303 302 302 303 304 305 304 304 304 304 303 301 300 302 303 303 303 303 303 303 303 303 302 303
322 323 323 321 322 321 322 321 321 322 322 322 323 322 320 319 315 311 309 309 309 309 309 309 307 306 306 304 303 303 301 300 300 300 301 302 301 300 299 299 299 297 298 299 298 299 299 299 299 298 299 299 300 300
323 324 325 323 323 322 322 320 319 319 319 320 321 318 316 315 312 310 310 310 309 308 308 307 306 304 303 302 302 301 300 298 298 297 298 299 298 297 296 297 297 296 297 297 296 297 297 296 296 296 296 297 298 298
325 324 322 323 321 320 320 320 319 318 318 319 319 317 314 312 311 310 309 309 309 309 307 306 305 303 301 300 300 299 299 298 297 297 296 297 296 295 295 295 295 295 295 295 295 295 294 294 295 295 295 295 295 295
323 321 325 321 320 319 318 318 318 316 316 315 314 313 312 311 311 310 310 308 307 306 305 304 303 301 300 299 299 298 297 297 295 294 293 294 294 294 294 294 294 294 294 294 295 295 294 294 294 294 293 293 293 293
320 320 321 320 320 318 319 318 316 315 315 315 314 314 313 313 313 310 307 306 305 304 303 302 301 300 299 298 298 297 296 296 294 293 291 292 292 292 293 293 293 294 293 294 294 294 293 293 293 293 293 292 292 292
320 319 320 321 321 320 319 320 320 318 316 316 315 314 315 315 314 311 307 306 304 304 302 302 301 300 299 298 297 296 295 296 294 292 291 291 291 291 292 292 292 292 292 292 292 292 292 292 292 292 292 292 292 291
319 319 319 319 321 321 323 323 322 320 318 318 317 315 313 313 311 307 305 305 303 302 301 300 301 300 299 298 296 296 296 294 292 291 291 291 291 291 291 292 291 291 292 292 292 292 292 292 292 292 292 292 292 291

GFSWCAN_925_thetae_036.txt.gz
Theta_e
301 301 301 301 301 300 300 300 300 300 301 303 304 304 305 305 304 304 304 303 304 305 304 304 303 304 304 304 306 304 307 309 310 315 318 317 315 314 319 322 328 331 333 334 328 329 330 333 336 326 328 344 342 340
301 301 301 301 301 301 301 301 301 301 301 301 304 304 304 304 304 304 304 303 304 304 304 305 304 304 304 304 303 303 305 308 309 309 312 312 316 320 319 328 326 330 331 334 334 338 332 333 332 331 339 341 344 341
301 301 301 301 301 301 301 301 301 302 302 302 303 305 305 304 304 304 304 302 303 304 303 302 302 303 304 304 304 305 304 305 309 308 310 312 312 313 321 323 328 330 329 334 332 334 332 334 329 330 332 350 349 349
301 301 301 302 302 302 302 302 302 303 302 302 305 305 304 304 304 303 304 303 303 304 305 303 304 303 304 304 303 304 305 306 308 308 308 310 314 313 319 322 324 329 330 330 332 331 332 332 328 328 342 348 349 349
301 301 301 301 301 301 301 301 301 302 302 303 304 305 305 305 304 304 302 302 303 304 306 305 303 305 304 310 309 304 305 305 307 308 308 311 314 315 319 322 324 328 328 331 334 328 333 331 328 328 330 333 337 345
301 301 301 301 300 301 301 301 301 303 303 303 304 305 305 306 305 304 302 304 305 305 305 306 301 302 304 306 309 307 308 307 306 307 312 313 313 314 320 325 324 324 324 324 331 330 328 327 327 327 328 327 326 326
301 301 300 300 300 300 300 301 303 304 304 304 305 306 306 306 305 303 303 305 304 303 304 306 303 302 307 309 310 309 308 308 306 311 314 315 316 318 322 328 324 325 323 325 328 329 328 327 328 326 327 327 327 328
300 300 300 300 300 300 301 302 305 305 305 306 306 307 307 306 306 306 305 304 303 303 303 306 305 305 310 312 312 311 308 309 311 313 314 317 316 319 325 322 323 322 322 325 326 325 326 326 325 325 325 326 327 328
301 301 301 301 301 301 301 304 306 305 308 309 310 309 307 306 305 306 306 304 303 303 306 305 306 310 309 315 315 314 314 316 315 317 317 317 319 324 323 323 322 323 323 326 325 324 324 325 325 325 325 326 327 327
303 303 302 302 302 302 302 306 306 305 309 309 310 309 310 309 308 306 304 304 302 301 300 302 305 307 308 315 315 315 315 317 319 318 314 314 317 319 320 320 319 321 322 324 326 325 325 325 323 321 322 324 325 324
302 303 303 303 303 303 305 308 306 307 309 308 305 308 307 309 309 310 310 307 303 304 299 301 305 308 310 316 316 316 318 315 316 318 315 314 317 318 317 319 318 318 319 321 321 321 323 325 327 326 325 324 321 320
302 302 303 304 304 304 308 307 306 307 308 307 306 307 308 311 311 312 313 311 310 313 308 309 312 309 313 316 317 317 315 317 320 317 315 316 316 316 317 320 319 319 320 321 322 323 322 324 326 326 327 327 327 327
303 303 304 305 305 309 309 306 307 310 310 310 308 311 313 312 316 309 313 314 316 318 317 315 318 317 318 316 316 317 322 319 317 313 312 313 314 316 318 319 322 322 321 322 323 323 323 324 325 326 326 326 326 326
303 303 305 306 309 309 306 307 310 312 312 312 314 315 315 318 318 315 320 320 320 318 319 320 322 320 318 318 322 322 319 317 318 317 322 323 322 321 321 322 323 323 323 323 323 324 324 324 323 324 323 322 323 323
304 305 306 309 309 307 309 311 313 313 315 315 313 319 318 317 318 319 319 318 318 318 318 320 321 320 321 322 322 321 319 317 318 322 322 321 320 321 321 321 320 320 320 318 318 319 322 321 320 319 320 320 321 322
305 307 309 310 309 311 312 313 315 316 317 313 315 317 316 318 319 317 318 319 318 317 317 316 320 321 321 320 320 319 317 319 321 321 319 319 319 320 319 318 318 318 318 315 315 317 318 319 318 318 317 318 320 319
307 308 308 309 310 312 313 315 316 316 316 316 317 315 315 315 317 315 314 315 316 318 319 319 322 322 318 320 320 321 322 322 321 320 319 319 319 318 319 320 319 318 316 313 311 310 310 310 310 311 313 316 316 316
308 309 310 310 310 312 314 316 313 314 317 316 316 315 314 314 316 315 314 313 313 315 317 320 318 319 320 320 320 319 318 317 318 317 318 318 317 317 318 318 314 314 316 314 309 308 307 307 307 307 308 310 312 313
310 312 312 312 310 311 313 314 313 317 318 314 314 313 313 313 314 314 313 313 312 310 311 314 315 315 315 316 316 318 317 315 315 316 317 317 317 317 315 313 311 310 309 308 307 306 306 306 306 307 307 307 307 307
314 313 313 314 313 313 313 311 314 314 316 315 313 314 314 313 312 312 313 312 312 311 311 312 313 315 311 308 308 310 311 314 310 311 314 314 314 315 311 310 308 308 307 307 306 306 305 305 306 307 307 306 306 305
316 314 315 316 315 314 313 312 314 312 313 315 315 315 315 313 312 312 312 311 313 313 314 311 309 309 306 304 304 304 305 308 307 306 307 308 307 306 307 307 306 305 305 304 304 304 304 303 304 305 305 307 307 305
314 315 315 317 316 315 314 316 312 313 314 315 315 314 315 315 314 313 310 312 311 311 310 310 309 309 304 303 303 302 303 303 304 303 305 305 304 303 302 302 302 302 302 302 303 303 303 304 305 304 304 306 306 306
314 315 317 318 317 309 313 318 317 316 319 318 317 319 317 314 312 309 310 309 309 308 309 309 308 308 305 302 301 301 301 300 301 301 303 303 301 300 299 298 298 299 300 300 300 301 301 300 300 301 300 301 301 304
315 315 318 318 317 314 318 319 318 319 319 319 318 318 317 317 315 312 312 308 308 307 306 308 308 305 303 301 298 299 299 298 298 299 300 300 299 298 297 296 296 297 298 298 298 299 297 297 297 297 297 298 299 300
311 314 315 314 318 321 320 320 319 318 319 319 319 316 315 317 316 313 313 309 306 306 306 307 306 303 300 298 298 297 297 297 296 296 296 297 297 297 296 295 295 297 296 296 297 297 295 295 296 296 297 297 297 297
312 321 318 322 321 322 322 320 319 319 319 320 319 318 318 317 314 312 309 308 307 308 307 305 304 299 298 298 295 296 296 295 296 295 295 295 295 295 294 293 293 294 295 295 295 295 295 295 295 296 295 294 294 295
317 319 316 317 319 320 319 317 316 316 319 321 318 318 318 315 314 310 307 308 308 309 309 307 301 300 298 298 297 295 295 295 295 295 294 294 294 294 294 294 293 294 295 295 294 294 294 294 294 294 294 293 293 294
317 315 320 321 321 319 318 317 316 316 315 314 314 315 314 313 311 307 306 310 310 307 302 300 300 299 298 298 296 295 294 294 294 293 293 293 293 294 294 294 293 293 294 294 294 293 293 293 293 293 293 292 292 292
320 319 319 322 317 317 317 316 315 313 311 313 313 312 311 309 309 309 310 309 305 304 301 300 299 299 298 296 295 294 294 293 292 291 291 290 291 293 293 293 293 293 293 293 293 293 293 293 292 292 292 292 292 292
321 318 322 323 318 318 315 313 313 311 310 310 309 308 308 309 310 311 310 305 303 302 302 300 299 299 298 295 294 293 293 293 292 292 290 290 291 292 292 292 292 292 292 293 292 292 292 292 292 292 292 292 292 292
321 321 324 319 319 316 314 313 314 312 310 310 309 309 310 310 311 310 309 304 302 301 301 300 299 299 297 297 295 293 292 293 293 292 292 292 292 292 292 292 292 292 292 292 292 292 292 292 292 292 292 292 292 293
321 321 321 321 320 318 316 316 316 317 315 314 313 312 311 310 313 308 303 303 301 300 300 299 298 297 297 296 296 296 295 293 293 292 292 292 292 292 292 292 292 292 292 292 292 292 292 292 292 292 293 293 293 293
319 318 319 320 320 321 320 319 320 319 316 317 315 314 316 311 309 305 303 302 301 300 300 299 298 297 296 295 295 295 294 294 293 293 293 293 292 292 292 291 292 291 291 291 292 292 292 292 292 293 293 293 293 293

GFSWCAN_925_thetae_042.txt.gz
Theta_e
300 301 301 301 301 301 301 301 300 300 300 301 302 305 305 304 304 305 303 303 303 303 301 300 301 303 302 303 304 302 301 303 307 310 310 310 311 314 313 311 315 313 314 313 313 321 323 329 332 336 330 331 333 335
300 301 301 301 301 301 301 300 300 300 301 301 303 305 305 304 304 305 304 303 303 303 303 303 302 302 302 302 303 303 304 302 302 306 306 305 308 311 311 315 313 318 318 320 315 317 320 329 330 329 328 332 332 333
300 300 300 301 301 301 301 301 301 301 302 302 305 306 306 306 305 305 305 303 302 303 302 300 300 302 302 302 302 304 303 303 305 306 306 304 307 309 311 311 313 313 314 321 321 322 329 331 329 328 329 331 331 332
300 300 301 301 301 301 302 302 302 302 302 304 306 306 307 307 306 306 306 305 303 302 303 301 303 302 303 302 302 302 302 301 301 306 308 310 311 308 311 310 313 311 311 314 319 317 326 331 329 329 330 331 331 333
302 302 302 302 302 302 302 302 302 302 303 305 306 307 307 307 307 306 306 306 304 302 301 302 301 303 303 302 302 301 301 301 302 306 309 310 309 310 308 309 310 310 311 313 314 317 319 328 327 328 330 330 331 333
302 302 301 301 302 302 302 302 302 303 305 307 306 307 307 308 306 306 303 303 305 303 303 305 301 302 303 302 301 301 301 302 303 305 307 308 309 309 310 311 311 314 313 312 314 322 324 326 327 327 329 329 330 332
301 301 301 301 302 302 303 303 303 305 307 306 307 308 308 308 306 304 304 304 304 303 304 305 304 302 301 305 305 305 303 303 304 306 308 308 310 309 307 311 310 311 311 310 314 321 327 326 327 326 327 328 328 332
301 302 302 302 304 304 304 304 305 307 307 307 308 308 309 308 307 306 306 304 304 303 303 305 304 301 305 308 309 304 304 304 307 309 311 311 311 311 311 311 311 312 313 317 323 324 324 326 325 327 326 327 328 329
302 302 304 306 305 305 305 305 307 307 308 307 308 307 307 307 307 306 306 304 304 303 304 304 306 305 303 309 309 311 312 313 311 312 314 313 311 310 311 311 313 316 319 324 325 326 325 326 327 327 327 326 327 328
305 307 306 306 305 305 306 307 308 308 309 308 308 308 306 307 306 304 304 303 301 301 301 301 303 306 303 312 313 313 314 315 316 315 314 311 310 311 314 318 319 321 320 324 325 325 325 324 323 323 323 324 326 326
306 305 305 306 306 306 307 308 308 308 309 309 306 306 307 307 307 308 308 304 300 303 299 300 302 306 307 311 315 312 315 312 313 314 314 311 312 314 317 319 321 323 324 324 323 323 324 323 324 325 326 325 326 327
305 305 306 307 306 308 310 310 308 308 308 307 306 307 307 310 310 311 313 308 306 310 308 307 308 305 307 309 313 313 309 309 315 311 311 314 317 319 321 321 322 323 324 325 326 327 327 326 326 326 326 326 326 325
306 307 307 307 309 311 311 312 313 312 309 309 308 310 313 315 313 315 313 317 321 319 317 311 315 313 314 315 315 316 317 317 315 313 312 321 320 318 318 319 320 321 322 322 323 324 323 323 323 324 325 325 325 325
308 308 307 310 311 312 313 313 315 314 314 309 312 316 318 318 317 315 316 317 317 318 317 317 320 320 318 320 320 320 318 315 318 316 321 321 318 314 312 313 314 313 314 315 316 316 317 318 320 319 320 323 324 324
308 307 309 311 312 312 314 314 314 315 313 312 314 316 317 314 313 312 313 313 312 313 314 316 315 315 318 319 318 317 318 316 319 320 320 318 317 313 311 309 309 309 309 309 310 312 314 314 313 312 312 314 320 320
308 308 311 313 312 313 314 314 314 315 314 313 312 312 311 311 312 311 310 309 308 311 313 314 316 318 318 316 317 318 315 317 319 317 316 315 311 310 308 307 306 306 307 307 307 307 307 307 308 308 308 311 312 312
309 311 312 314 312 313 314 314 314 313 313 313 312 308 308 308 309 310 309 308 306 311 314 316 317 318 316 315 314 312 315 314 314 310 310 310 308 306 304 304 304 304 304 305 305 305 306 307 307 307 308 308 307 306
312 313 314 315 313 313 314 314 313 313 314 311 310 309 306 306 308 308 308 308 305 305 311 312 309 311 312 311 309 308 309 309 310 306 304 303 303 303 303 303 303 303 303 303 304 304 303 304 304 304 304 305 304 304
312 314 315 315 313 313 311 311 312 314 312 309 308 306 306 306 306 307 307 307 306 303 304 305 307 307 307 306 307 304 303 303 306 305 300 299 300 300 301 301 301 301 302 301 302 303 303 303 302 302 302 303 302 302
314 314 315 316 314 312 310 309 311 311 313 311 308 309 307 307 304 306 307 306 304 304 305 304 306 306 306 302 299 299 298 300 301 301 299 297 297 298 297 298 298 299 299 299 298 299 300 301 301 302 301 300 300 299
314 315 316 317 315 313 308 308 309 309 309 310 308 309 310 307 307 306 305 303 305 306 305 305 302 298 296 296 296 296 297 296 296 296 297 296 296 296 297 297 297 296 296 296 296 296 296 295 297 300 300 299 297 297
313 314 316 317 315 311 310 310 309 308 312 312 313 313 311 309 307 307 303 304 305 304 303 301 299 296 294 295 295 295 296 296 296 295 295 294 294 294 295 295 295 295 294 294 294 294 295 296 298 299 298 297 296 295
314 314 316 316 315 308 312 313 314 312 314 312 311 314 314 315 311 305 308 303 303 302 302 301 298 296 295 295 296 295 295 295 293 293 294 293 293 293 293 294 294 294 293 293 295 295 295 296 296 296 295 294 294 293
315 313 314 314 315 313 312 313 312 313 313 316 316 315 313 312 311 308 308 305 303 302 300 300 296 294 294 294 292 292 293 293 293 293 293 293 292 292 292 293 293 294 293 294 294 294 295 295 295 294 294 293 293 292
309 311 311 308 313 315 317 315 313 314 316 315 315 313 312 309 310 308 308 305 303 304 302 298 296 294 293 292 292 292 293 293 292 291 291 292 292 293 293 293 292 292 293 294 294 294 293 293 293 294 294 293 292 292
314 318 316 320 316 317 316 315 314 315 315 317 316 312 309 309 309 308 304 303 303 304 304 300 295 293 293 292 291 292 293 293 293 292 292 292 291 291 290 290 290 292 293 293 293 293 293 292 292 292 292 292 292 291
313 315 312 310 314 314 312 310 310 312 317 318 314 314 311 312 311 306 303 303 303 307 308 305 301 296 294 293 293 293 293 292 292 292 292 292 291 291 291 291 290 291 292 292 293 293 292 292 291 291 291 291 291 291
313 312 317 314 317 312 314 312 313 313 311 309 309 312 312 311 308 304 303 307 307 306 300 299 298 297 295 294 293 293 293 292 292 291 291 292 291 291 291 291 291 292 292 292 292 292 292 291 291 291 291 291 291 291
314 312 313 316 315 312 312 313 312 308 306 308 311 310 309 305 305 305 307 305 305 299 297 296 295 295 294 293 293 293 293 293 292 290 290 289 289 291 291 291 291 292 292 292 292 291 291 291 291 291 292 292 293 293
318 313 315 318 317 316 313 309 309 306 305 307 306 305 306 305 307 308 308 303 300 298 297 296 295 294 293 293 292 292 292 292 292 291 289 290 290 291 291 291 291 292 291 291 292 291 292 292 292 292 292 293 293 293
313 314 317 317 316 313 311 309 310 310 307 306 305 307 308 306 308 304 303 302 300 299 297 295 294 294 294 293 292 291 291 292 292 292 292 291 291 291 291 291 291 291 292 292 292 292 291 292 292 292 292 292 292 292
315 317 317 318 316 311 309 311 310 311 310 309 309 308 309 308 310 305 300 299 299 298 297 297 296 295 295 295 295 294 293 293 293 293 292 292 291 291 291 291 291 291 291 292 292 292 292 292 292 291 291 291 291 291
317 315 315 316 315 314 312 313 313 314 312 310 310 310 311 312 312 304 300 299 299 300 299 298 297 296 295 295 295 295 294 293 293 293 292 292 292 292 291 291 291 291 292 292 292 292 292 291 291 291 291 291 291 292

GFSWCAN_925_thetae_045.txt.gz
Theta_e
300 300 300 300 300 300 301 301 301 301 302 302 302 306 306 305 305 304 305 304 303 304 303 303 303 303 303 303 305 303 304 305 308 309 308 309 311 312 313 312 315 317 317 316 313 313 314 316 329 332 335 335 336 339
300 300 300 300 301 301 301 302 302 302 302 302 304 307 307 307 307 307 306 305 303 303 303 303 303 302 302 302 303 303 304 305 306 308 308 307 310 310 311 312 314 316 314 318 314 313 314 317 322 330 332 334 335 338
300 301 302 302 302 302 301 301 301 302 302 302 305 307 307 307 307 307 307 305 302 303 302 303 304 302 302 302 302 303 303 303 303 306 306 309 310 308 310 312 312 312 314 317 317 316 318 318 320 323 330 332 334 337
303 302 301 301 301 301 302 302 302 303 303 303 306 306 306 307 308 308 308 306 303 302 304 304 301 302 302 302 302 302 303 303 304 307 307 309 311 310 311 311 312 311 312 314 314 313 313 318 319 324 330 332 335 338
301 301 301 301 302 303 302 303 303 304 304 305 306 306 307 308 308 307 307 307 306 303 306 305 304 304 302 302 302 302 303 303 304 306 308 309 308 308 310 311 310 310 312 314 313 313 317 318 318 323 327 332 336 337
301 301 301 302 303 304 305 304 304 304 306 307 307 307 308 308 308 306 306 303 305 303 304 306 304 304 304 302 302 303 303 303 303 305 305 307 306 309 312 313 310 310 311 311 313 313 313 316 315 314 319 330 333 332
301 301 301 304 307 306 305 305 305 305 307 307 307 308 308 308 307 305 306 304 303 304 304 306 305 305 303 304 303 303 303 303 303 305 306 307 309 309 310 311 310 312 313 313 312 312 313 314 314 316 327 331 329 331
301 303 307 307 306 305 305 305 305 308 307 307 307 308 308 308 307 306 306 305 304 303 304 307 307 306 305 310 313 306 305 304 305 306 307 309 309 308 309 311 311 311 310 311 311 311 313 314 318 323 329 329 331 334
306 307 306 305 305 306 305 306 308 308 307 307 307 307 307 307 307 306 305 304 303 303 305 305 307 310 306 310 313 311 306 307 307 307 310 309 308 310 310 311 311 311 313 314 315 319 316 315 323 328 328 327 333 337
307 306 306 306 306 306 308 309 308 308 307 308 307 309 311 307 306 304 304 303 303 302 301 302 304 308 306 310 314 312 314 313 313 311 309 310 308 309 313 314 314 320 322 318 319 325 325 328 327 328 327 327 331 336
306 306 307 306 307 309 311 310 309 308 309 308 309 310 307 306 306 308 307 305 302 304 300 301 303 306 307 311 314 312 312 308 314 314 310 310 311 314 315 315 317 320 324 321 322 325 325 325 327 328 327 328 332 331
306 308 307 307 310 311 311 312 313 311 308 307 308 307 307 310 313 314 315 310 309 312 309 307 309 305 307 308 313 312 311 310 316 314 313 314 313 312 312 314 313 312 322 325 324 326 326 327 327 327 328 329 329 328
308 307 307 311 312 312 312 313 314 312 309 308 309 313 314 314 312 311 312 314 318 317 319 317 317 313 313 314 317 318 320 319 317 315 312 315 313 311 311 313 312 311 311 316 317 317 318 320 324 326 326 324 323 324
308 307 310 312 312 312 313 313 314 314 311 315 316 314 317 316 315 314 314 314 314 317 315 317 321 319 320 320 319 319 318 316 319 317 317 314 312 311 310 311 312 312 311 310 311 313 313 315 316 318 319 319 318 318
309 308 312 313 313 313 314 313 314 315 314 316 315 316 316 314 313 312 313 313 312 311 315 319 319 318 318 319 317 316 319 316 313 315 313 312 311 309 308 309 308 309 309 310 310 310 311 311 311 311 311 311 311 311
310 311 313 314 313 314 314 313 315 315 315 316 314 314 312 312 311 310 310 310 310 311 317 316 317 318 317 316 316 314 317 315 314 311 310 308 308 307 307 307 307 307 308 309 309 308 307 309 310 308 308 307 308 309
311 313 314 314 313 314 314 314 314 315 316 315 315 312 312 311 311 310 309 309 309 311 315 314 312 316 313 312 313 307 310 309 310 308 306 306 306 306 306 306 306 306 306 307 307 307 307 307 306 305 306 305 305 305
312 313 315 315 313 313 314 314 315 315 314 315 313 312 312 311 310 310 309 309 308 310 310 310 308 308 310 309 310 308 307 306 307 305 303 302 303 304 304 305 304 304 304 304 305 305 305 305 306 306 305 305 305 305
311 314 315 316 313 312 314 314 315 316 316 315 314 312 311 310 310 309 309 308 307 306 308 307 305 306 306 307 306 305 305 305 307 304 302 300 300 301 302 302 302 302 301 301 302 303 303 303 304 304 304 304 303 303
313 315 315 316 314 312 315 315 312 315 315 316 315 313 311 310 310 309 308 308 307 305 305 304 304 305 305 304 302 302 301 302 303 303 302 301 299 300 300 299 299 300 300 300 301 300 303 302 301 301 301 301 301 300
313 314 316 317 315 312 314 314 315 315 315 316 314 313 316 313 312 310 309 309 307 308 305 305 302 301 300 299 299 299 299 299 300 300 300 300 299 299 299 298 298 298 299 299 300 301 301 300 300 300 299 299 299 298
313 314 316 317 315 314 316 312 316 314 317 317 317 317 317 316 314 312 309 309 309 309 308 303 302 301 301 300 298 297 297 298 298 297 296 296 298 298 298 297 297 297 297 297 298 298 299 298 299 298 298 297 296 296
314 314 315 315 318 314 316 314 319 317 318 317 317 318 318 318 315 309 311 311 310 307 306 303 301 299 299 298 298 297 296 297 297 296 296 296 295 295 296 296 295 296 296 296 297 297 297 297 297 297 297 296 296 296
314 314 318 319 319 317 316 318 317 319 319 320 318 318 317 318 314 312 311 310 310 307 305 304 300 300 299 299 298 297 295 295 296 295 294 295 296 295 294 295 295 294 295 296 295 295 295 295 295 295 295 295 295 295
313 316 316 313 317 320 320 319 317 319 321 320 319 319 318 315 315 312 311 310 310 310 309 303 302 300 300 299 297 296 294 294 295 295 294 294 294 295 295 294 294 294 294 295 295 295 294 294 294 294 294 294 294 293
317 319 320 321 320 321 321 318 318 318 320 320 320 318 315 314 312 311 311 310 310 310 310 308 305 302 299 297 297 296 295 293 294 294 293 292 293 293 294 294 294 294 293 293 294 294 294 293 293 293 293 293 292 293
316 319 318 315 320 319 317 315 315 316 320 320 320 319 316 314 312 311 310 309 310 309 307 305 304 302 299 296 294 293 293 292 293 293 292 292 292 292 292 293 293 293 292 293 293 293 293 293 293 292 292 292 292 292
319 318 322 319 321 319 319 317 317 317 316 315 314 316 314 312 310 311 310 309 308 304 299 298 298 297 296 295 294 294 293 292 292 292 291 292 292 292 292 292 292 291 292 292 293 292 292 292 292 292 292 292 293 293
320 318 318 320 320 318 318 318 317 315 313 315 317 315 313 311 310 309 308 307 305 301 300 298 296 294 294 293 293 293 293 294 295 295 294 293 293 292 291 292 292 292 292 292 292 292 292 292 292 293 293 293 294 294
323 318 320 320 321 320 319 316 316 313 311 313 312 311 311 310 308 307 307 304 302 301 300 298 296 296 296 296 296 294 293 293 293 293 294 294 293 292 292 292 292 292 292 292 292 292 292 293 293 293 293 293 293 294
319 319 321 321 323 320 317 313 312 312 311 312 310 312 314 312 310 305 303 303 301 299 297 296 296 296 296 296 296 296 296 293 293 292 292 292 292 292 291 291 291 292 292 292 292 292 293 293 293 293 293 293 293 293
321 323 322 323 323 317 313 316 316 316 315 314 315 312 313 314 315 310 300 299 299 299 297 298 298 298 296 295 295 294 293 293 293 293 292 292 292 292 291 291 292 292 292 292 293 293 293 293 292 292 293 293 293 293
321 321 320 320 321 319 316 317 318 318 317 316 315 314 314 315 315 307 300 298 299 300 299 298 297 296 295 295 295 295 294 293 293 292 292 292 292 292 291 291 292 292 292 292 292 292 292 292 293 292 292 293 293 293

GFSWCAN_925_thetae_048.txt.gz
Theta_e
300 300 300 301 302 302 302 301 301 301 302 302 304 307 306 306 307 308 307 305 303 303 304 304 305 305 306 306 307 305 306 308 307 310 309 309 310 310 312 311 313 316 314 313 313 315 316 316 318 329 334 333 336 336
303 303 303 302 301 301 301 301 302 302 302 303 306 306 306 307 307 307 309 306 305 303 304 304 304 304 305 304 305 305 305 307 307 311 310 309 312 310 311 313 312 314 314 317 314 313 314 316 319 319 321 324 328 332
302 301 301 301 301 302 302 302 303 303 304 304 306 306 306 307 307 308 309 305 303 304 304 303 306 306 305 305 305 305 305 304 305 306 307 309 311 310 312 310 310 311 312 314 316 316 317 317 317 319 321 323 324 328
301 301 301 301 302 302 302 303 304 305 305 306 307 307 307 307 308 308 308 306 303 302 305 308 305 304 305 304 304 304 305 304 304 306 308 309 310 310 312 312 313 312 313 314 315 315 315 316 317 317 318 324 325 328
301 301 301 302 302 305 306 306 305 305 307 307 307 307 307 308 308 308 307 306 305 305 308 308 307 306 305 305 305 304 305 305 305 308 308 309 308 310 310 311 311 311 313 314 315 314 315 315 316 317 319 319 319 322
301 301 303 305 307 306 305 305 305 306 307 307 307 307 308 308 308 308 310 304 305 304 305 309 307 307 306 304 304 305 305 305 305 307 306 306 306 308 312 312 311 312 312 313 314 314 314 315 316 316 317 318 318 321
302 305 307 307 305 306 306 306 307 308 307 307 307 308 309 308 308 308 310 306 304 304 306 307 309 307 306 305 304 305 306 306 306 305 305 306 307 308 309 311 311 311 312 314 314 314 315 315 315 316 316 317 318 324
307 307 306 305 306 306 306 309 308 308 307 307 308 308 308 308 307 308 306 304 304 304 304 308 310 310 307 310 310 305 306 305 305 304 304 307 307 306 309 310 310 310 311 312 312 312 312 312 312 314 315 318 320 325
307 306 306 307 306 307 310 309 308 308 308 308 307 308 310 308 309 306 305 304 303 303 305 304 308 312 307 310 313 308 306 306 304 305 304 306 306 309 309 307 307 312 313 311 311 311 311 312 313 316 318 319 328 333
307 307 307 307 308 310 311 309 309 308 308 308 309 314 314 308 306 304 303 304 305 303 301 302 301 307 306 310 313 312 312 311 313 310 308 306 308 307 312 313 315 322 325 314 313 314 316 319 319 317 319 326 330 330
308 308 307 308 310 312 312 312 312 309 309 312 315 315 308 307 306 309 312 308 306 309 303 304 304 307 307 311 314 311 312 309 319 317 313 312 312 312 310 310 314 315 320 322 320 320 324 322 321 324 327 329 330 330
308 307 307 311 312 312 312 314 314 313 313 312 310 308 308 313 316 317 316 314 315 318 317 312 314 307 308 308 314 315 316 315 324 319 316 314 313 312 310 310 312 314 315 317 318 323 324 322 321 327 329 329 328 322
309 307 310 313 313 312 312 314 314 313 310 311 315 317 318 316 317 313 314 315 316 318 319 319 320 319 316 313 320 322 322 322 318 316 312 313 314 312 311 310 311 312 312 313 315 316 315 315 315 317 319 322 322 320
310 309 312 313 313 313 313 314 314 314 316 318 317 318 317 317 317 316 318 317 316 316 317 319 321 322 320 321 319 320 320 318 319 317 315 314 312 311 312 312 313 313 312 311 312 313 313 312 311 311 312 312 315 319
311 310 313 313 313 314 313 313 314 318 315 316 316 319 316 314 313 313 313 314 313 314 318 320 320 317 318 319 317 316 318 318 315 314 312 311 310 311 310 311 311 313 313 314 311 310 310 311 310 309 308 309 310 311
312 313 314 314 313 313 313 315 316 316 315 315 315 316 315 315 314 313 313 313 313 315 319 318 318 319 316 315 315 314 317 316 312 310 310 309 310 310 310 309 310 309 311 311 311 310 309 309 310 309 307 306 306 307
312 315 314 315 313 313 314 317 316 315 315 315 315 314 314 314 314 313 312 311 312 314 315 314 314 315 313 313 314 312 313 309 307 311 308 308 308 309 309 308 308 308 308 308 309 309 309 308 308 308 310 308 307 305
313 313 315 316 313 314 317 317 315 315 315 315 316 315 314 313 312 311 311 310 311 312 311 309 309 309 310 309 310 309 310 309 310 309 307 307 307 307 306 307 306 307 307 306 307 307 307 307 308 308 306 307 307 307
311 314 316 316 313 316 318 318 316 316 316 316 316 315 314 313 311 309 309 308 308 308 308 308 308 308 307 306 306 306 306 307 308 308 307 305 304 304 303 303 303 303 304 305 305 306 306 306 306 305 305 305 305 304
312 314 314 317 313 318 318 319 317 316 317 317 317 317 316 315 312 310 310 309 308 308 308 307 307 305 305 304 303 304 304 304 305 306 306 304 302 302 302 302 301 300 301 302 303 303 304 304 303 303 303 302 302 301
315 315 316 318 319 318 319 319 319 319 318 318 319 319 318 316 314 311 310 309 309 308 307 306 305 305 304 303 302 301 301 301 302 302 302 302 301 301 300 300 300 299 299 300 301 301 303 303 303 302 301 301 301 301
316 314 319 320 320 319 321 318 320 319 320 320 320 319 318 318 315 313 311 310 310 309 308 306 305 305 304 304 302 301 300 300 300 300 299 299 300 300 299 299 299 299 299 299 300 300 300 300 300 301 301 300 299 298
316 316 320 320 322 320 321 320 323 322 321 321 320 319 318 318 317 313 311 310 310 309 308 307 305 303 303 302 302 301 300 299 300 299 298 298 298 298 298 298 298 298 299 298 298 298 298 297 297 298 298 298 298 298
315 320 323 323 323 321 321 321 321 322 322 321 320 319 319 318 316 313 310 309 309 310 310 310 307 305 304 303 303 301 300 299 299 298 297 297 298 298 297 297 297 297 297 297 297 297 297 297 296 297 297 297 296 296
321 322 322 317 322 322 320 319 319 319 321 321 320 319 320 317 316 313 310 308 309 310 310 309 308 307 306 304 302 301 299 298 298 298 297 296 296 297 297 297 297 296 296 297 297 297 296 296 296 296 295 295 295 295
321 324 324 321 322 322 320 319 318 318 319 321 321 321 319 316 314 311 309 308 309 309 308 308 308 307 305 302 302 301 299 298 297 297 296 295 295 295 296 297 297 296 295 295 296 296 296 295 295 295 295 295 293 295
322 322 323 322 324 322 321 319 318 318 319 319 320 321 317 314 311 311 310 310 310 309 308 306 305 304 303 301 299 298 297 297 296 296 295 295 295 294 294 295 295 294 294 295 295 295 295 295 295 295 295 295 295 295
322 322 322 322 323 322 322 321 320 318 317 317 317 317 315 313 313 312 311 310 310 308 305 304 303 302 301 299 299 298 297 296 296 297 296 295 295 294 294 294 294 292 293 293 293 295 294 295 295 295 295 295 295 296
324 322 321 323 323 322 322 321 320 319 317 316 317 316 315 314 314 312 311 311 310 307 304 303 301 300 299 298 298 298 297 297 297 298 298 297 296 295 294 294 294 294 294 294 293 292 292 292 293 294 295 295 295 295
326 323 324 323 323 322 322 320 320 319 317 316 316 315 315 315 313 311 311 310 310 305 303 302 301 301 301 300 299 299 297 296 296 296 297 297 295 295 294 294 294 294 294 294 294 294 293 293 294 294 294 294 295 295
324 324 325 325 324 324 322 320 318 317 316 316 316 316 317 317 314 309 309 308 305 302 301 301 301 301 300 300 299 298 298 297 296 296 295 295 295 294 294 294 294 294 294 294 294 294 294 294 294 294 294 294 294 294
325 326 325 325 325 323 320 320 320 320 320 319 319 317 317 317 318 312 304 303 301 302 300 302 302 300 299 298 298 297 295 296 296 296 295 294 294 294 294 293 293 293 294 294 294 294 294 294 294 294 293 294 294 294
324 324 325 324 325 325 322 321 322 322 321 321 320 318 318 318 317 309 302 302 303 303 302 301 300 299 298 298 297 296 296 295 293 293 292 292 292 292 293 293 293 293 293 293 293 293 294 294 294 294 294 294 294 294